| time (UTC) | temp F | wind direction | speed knots | gust knots | rain 1hr in | rain 24hr in | rain mn in | humidity % | barometer mb |
| 20260507064658 | 37 | 204 | 0.9 | 7.0 | 0.03 | 0.12 | 0.12 | 88 | 1010.6 |
| 20260507064559 | 37 | 145 | 5.2 | 7.0 | 0.03 | 0.12 | 0.12 | 89 | 1010.6 |
| 20260507064358 | 37 | 161 | 4.3 | 6.1 | 0.03 | 0.12 | 0.12 | 90 | 1010.7 |
| 20260507064258 | 37 | 162 | 3.5 | 6.1 | 0.03 | 0.12 | 0.12 | 91 | 1010.7 |
| 20260507064159 | 37 | 182 | 2.6 | 5.2 | 0.03 | 0.12 | 0.12 | 91 | 1010.7 |
| 20260507064059 | 37 | 78 | 0.9 | 5.2 | 0.03 | 0.12 | 0.12 | 92 | 1010.7 |
| 20260507064000 | 37 | 78 | 1.7 | 5.2 | 0.02 | 0.11 | 0.11 | 92 | 1010.7 |
| 20260507063858 | 37 | 78 | 1.7 | 5.2 | 0.02 | 0.11 | 0.11 | 92 | 1010.6 |
| 20260507063759 | 37 | 78 | 1.7 | 5.2 | 0.02 | 0.11 | 0.11 | 92 | 1010.7 |
| 20260507063659 | 37 | 78 | 0.9 | 5.2 | 0.02 | 0.11 | 0.11 | 92 | 1010.7 |
| 20260507063359 | 37 | 108 | 0.9 | 2.6 | 0.02 | 0.11 | 0.11 | 92 | 1010.6 |
| 20260507063258 | 37 | 108 | 0.0 | 1.7 | 0.02 | 0.11 | 0.11 | 92 | 1010.6 |
| 20260507063059 | 37 | 108 | 0.0 | 1.7 | 0.02 | 0.11 | 0.11 | 92 | 1010.6 |
| 20260507062859 | 37 | 108 | 0.9 | 1.7 | 0.02 | 0.11 | 0.11 | 92 | 1010.6 |
| 20260507062658 | 37 | 108 | 0.9 | 1.7 | 0.02 | 0.11 | 0.11 | 92 | 1010.6 |
| 20260507062558 | 37 | 108 | 0.0 | 1.7 | 0.02 | 0.11 | 0.11 | 92 | 1010.6 |
| 20260507062501 | 37 | 108 | 0.9 | 1.7 | 0.02 | 0.11 | 0.11 | 92 | 1010.6 |
| 20260507062359 | 37 | 108 | 0.9 | 1.7 | 0.02 | 0.11 | 0.11 | 91 | 1010.6 |
| 20260507062157 | 37 | 108 | 0.0 | 1.7 | 0.01 | 0.10 | 0.10 | 91 | 1010.5 |
| 20260507062058 | 37 | 108 | 0.0 | 1.7 | 0.01 | 0.10 | 0.10 | 91 | 1010.6 |
| 20260507062000 | 37 | 108 | 0.0 | 1.7 | 0.01 | 0.10 | 0.10 | 91 | 1010.5 |
| 20260507061858 | 37 | 108 | 1.7 | 1.7 | 0.01 | 0.10 | 0.10 | 91 | 1010.5 |
| 20260507061659 | 37 | 108 | 0.0 | 1.7 | 0.01 | 0.10 | 0.10 | 91 | 1010.5 |
| 20260507061559 | 37 | 108 | 0.0 | 1.7 | 0.01 | 0.10 | 0.10 | 91 | 1010.5 |
| 20260507061502 | 37 | 108 | 0.9 | 1.7 | 0.01 | 0.10 | 0.10 | 91 | 1010.5 |
| 20260507061259 | 37 | 108 | 1.7 | 1.7 | 0.01 | 0.10 | 0.10 | 91 | 1010.5 |
| 20260507061159 | 37 | 108 | 0.9 | 2.6 | 0.01 | 0.10 | 0.10 | 91 | 1010.5 |
| 20260507061000 | 37 | 108 | 0.9 | 2.6 | 0.01 | 0.10 | 0.10 | 91 | 1010.5 |
| 20260507060859 | 37 | 108 | 0.0 | 2.6 | 0.01 | 0.10 | 0.10 | 91 | 1010.5 |
| 20260507060758 | 37 | 108 | 0.9 | 2.6 | 0.01 | 0.10 | 0.10 | 91 | 1010.5 |
| 20260507060659 | 37 | 108 | 1.7 | 2.6 | 0.01 | 0.10 | 0.10 | 91 | 1010.5 |
| 20260507060558 | 37 | 108 | 0.9 | 2.6 | 0.01 | 0.10 | 0.10 | 91 | 1010.5 |
| 20260507060459 | 37 | 108 | 0.0 | 2.6 | 0.01 | 0.10 | 0.10 | 91 | 1010.5 |
| 20260507060259 | 37 | 108 | 1.7 | 1.7 | 0.01 | 0.09 | 0.09 | 91 | 1010.5 |
| 20260507060158 | 37 | 108 | 0.9 | 0.9 | 0.01 | 0.09 | 0.09 | 91 | 1010.5 |
| 20260507055758 | 37 | 108 | 0.0 | 3.5 | 0.01 | 0.09 | 0.09 | 90 | 1010.4 |
| 20260507055659 | 37 | 108 | 0.0 | 3.5 | 0.01 | 0.09 | 0.09 | 90 | 1010.4 |
| 20260507055558 | 37 | 108 | 0.0 | 3.5 | 0.01 | 0.09 | 0.09 | 90 | 1010.4 |
| 20260507055500 | 37 | 108 | 0.0 | 3.5 | 0.01 | 0.09 | 0.09 | 90 | 1010.4 |
| 20260507055358 | 37 | 108 | 0.0 | 3.5 | 0.01 | 0.09 | 0.09 | 91 | 1010.3 |
| 20260507055258 | 37 | 108 | 0.9 | 3.5 | 0.01 | 0.09 | 0.09 | 91 | 1010.3 |
| 20260507055201 | 37 | 108 | 1.7 | 3.5 | 0.01 | 0.09 | 0.09 | 91 | 1010.4 |
| 20260507055057 | 37 | 109 | 1.7 | 3.5 | 0.01 | 0.09 | 0.09 | 91 | 1010.3 |
| 20260507055000 | 37 | 142 | 1.7 | 2.6 | 0.01 | 0.09 | 0.09 | 91 | 1010.3 |
| 20260507054858 | 37 | 144 | 1.7 | 2.6 | 0.01 | 0.09 | 0.09 | 91 | 1010.3 |
| 20260507054758 | 37 | 144 | 1.7 | 1.7 | 0.01 | 0.09 | 0.09 | 92 | 1010.3 |
| 20260507054658 | 37 | 144 | 0.0 | 1.7 | 0.01 | 0.09 | 0.09 | 92 | 1010.3 |
| 20260507054557 | 37 | 144 | 0.0 | 1.7 | 0.01 | 0.09 | 0.09 | 92 | 1010.3 |
| 20260507054500 | 37 | 144 | 0.0 | 1.7 | 0.01 | 0.09 | 0.09 | 92 | 1010.3 |
| 20260507054358 | 37 | 144 | 0.0 | 1.7 | 0.01 | 0.09 | 0.09 | 92 | 1010.3 |
| 20260507054259 | 37 | 144 | 0.0 | 1.7 | 0.01 | 0.09 | 0.09 | 92 | 1010.3 |
| 20260507054159 | 37 | 144 | 0.0 | 1.7 | 0.01 | 0.09 | 0.09 | 91 | 1010.2 |
| 20260507054058 | 37 | 144 | 0.0 | 1.7 | 0.01 | 0.09 | 0.09 | 91 | 1010.2 |
| 20260507054003 | 37 | 144 | 0.0 | 1.7 | 0.01 | 0.09 | 0.09 | 91 | 1010.2 |
| 20260507053858 | 37 | 144 | 0.0 | 1.7 | 0.01 | 0.09 | 0.09 | 92 | 1010.2 |
| 20260507053758 | 37 | 144 | 0.9 | 1.7 | 0.01 | 0.09 | 0.09 | 92 | 1010.3 |
| 20260507053658 | 37 | 144 | 0.0 | 1.7 | 0.01 | 0.09 | 0.09 | 92 | 1010.2 |
| 20260507053500 | 37 | 144 | 0.0 | 1.7 | 0.01 | 0.09 | 0.09 | 91 | 1010.2 |
| 20260507053359 | 37 | 144 | 0.9 | 1.7 | 0.01 | 0.09 | 0.09 | 91 | 1010.2 |
| 20260507053258 | 37 | 144 | 0.9 | 1.7 | 0.01 | 0.09 | 0.09 | 91 | 1010.2 |
| 20260507053158 | 37 | 144 | 0.9 | 1.7 | 0.01 | 0.09 | 0.09 | 91 | 1010.2 |
| 20260507053058 | 37 | 144 | 1.7 | 1.7 | 0.01 | 0.09 | 0.09 | 91 | 1010.2 |
| 20260507053001 | 37 | 144 | 0.9 | 1.7 | 0.01 | 0.09 | 0.09 | 91 | 1010.2 |
| 20260507052859 | 37 | 144 | 0.0 | 1.7 | 0.01 | 0.09 | 0.09 | 91 | 1010.2 |
| 20260507052757 | 37 | 144 | 0.9 | 1.7 | 0.01 | 0.09 | 0.09 | 91 | 1010.2 |
| 20260507052700 | 37 | 144 | 0.9 | 1.7 | 0.01 | 0.09 | 0.09 | 91 | 1010.2 |
| 20260507052558 | 37 | 144 | 0.9 | 1.7 | 0.01 | 0.09 | 0.09 | 91 | 1010.1 |
| 20260507052500 | 37 | 144 | 0.9 | 1.7 | 0.01 | 0.09 | 0.09 | 91 | 1010.2 |
| 20260507052158 | 37 | 144 | 0.0 | 1.7 | 0.01 | 0.09 | 0.09 | 90 | 1010.1 |
| 20260507052058 | 37 | 144 | 0.9 | 1.7 | 0.01 | 0.09 | 0.09 | 90 | 1010.2 |
| 20260507052001 | 37 | 144 | 1.7 | 1.7 | 0.01 | 0.09 | 0.09 | 90 | 1010.2 |
| 20260507051757 | 37 | 144 | 0.9 | 1.7 | 0.02 | 0.09 | 0.09 | 90 | 1010.1 |
| 20260507051558 | 37 | 144 | 0.9 | 2.6 | 0.02 | 0.09 | 0.09 | 90 | 1010.1 |
| 20260507051500 | 37 | 144 | 1.7 | 3.5 | 0.02 | 0.09 | 0.09 | 90 | 1010.1 |
| 20260507051357 | 37 | 144 | 0.9 | 3.5 | 0.02 | 0.09 | 0.09 | 90 | 1010.1 |
| 20260507051259 | 37 | 144 | 0.9 | 3.5 | 0.02 | 0.09 | 0.09 | 90 | 1010.1 |
| 20260507051159 | 37 | 144 | 0.9 | 3.5 | 0.02 | 0.09 | 0.09 | 90 | 1010.1 |
| 20260507051058 | 37 | 144 | 0.9 | 3.5 | 0.02 | 0.09 | 0.09 | 90 | 1010.1 |
| 20260507051000 | 37 | 144 | 0.9 | 3.5 | 0.03 | 0.09 | 0.09 | 90 | 1010.1 |
| 20260507050858 | 37 | 144 | 0.9 | 3.5 | 0.03 | 0.09 | 0.09 | 90 | 1010.1 |
| 20260507050758 | 37 | 144 | 1.7 | 3.5 | 0.03 | 0.09 | 0.09 | 90 | 1010.0 |
| 20260507050658 | 37 | 144 | 1.7 | 3.5 | 0.03 | 0.09 | 0.09 | 90 | 1010.0 |
| 20260507050459 | 37 | 137 | 1.7 | 3.5 | 0.04 | 0.09 | 0.09 | 90 | 1010.1 |
| 20260507050358 | 37 | 137 | 3.5 | 3.5 | 0.04 | 0.08 | 0.08 | 90 | 1010.0 |
| 20260507050159 | 37 | 127 | 1.7 | 3.5 | 0.04 | 0.08 | 0.08 | 90 | 1010.0 |
| 20260507050058 | 37 | 127 | 1.7 | 3.5 | 0.05 | 0.08 | 0.08 | 90 | 1010.0 |
| 20260507045958 | 37 | 126 | 1.7 | 3.5 | 0.05 | 0.08 | 0.08 | 90 | 1010.1 |
| 20260507045857 | 37 | 126 | 1.7 | 3.5 | 0.05 | 0.08 | 0.08 | 90 | 1010.0 |
| 20260507045757 | 37 | 126 | 0.9 | 3.5 | 0.05 | 0.08 | 0.08 | 90 | 1010.0 |
| 20260507045657 | 37 | 126 | 0.9 | 3.5 | 0.06 | 0.08 | 0.08 | 89 | 1010.0 |
| 20260507045557 | 37 | 126 | 2.6 | 3.5 | 0.06 | 0.08 | 0.08 | 90 | 1010.0 |
| 20260507045459 | 37 | 126 | 1.7 | 1.7 | 0.07 | 0.08 | 0.08 | 90 | 1010.1 |
| 20260507045357 | 37 | 126 | 0.0 | 1.7 | 0.07 | 0.08 | 0.08 | 90 | 1010.1 |
| 20260507045258 | 37 | 126 | 0.9 | 0.9 | 0.07 | 0.08 | 0.08 | 90 | 1010.1 |
| 20260507045157 | 37 | 126 | 0.9 | 0.9 | 0.07 | 0.08 | 0.08 | 90 | 1010.1 |
| 20260507045057 | 37 | 126 | 0.9 | 0.9 | 0.07 | 0.08 | 0.08 | 90 | 1010.1 |
| 20260507044959 | 37 | 126 | 0.0 | 0.9 | 0.08 | 0.08 | 0.08 | 90 | 1010.1 |
| 20260507044857 | 37 | 126 | 0.0 | 1.7 | 0.08 | 0.08 | 0.08 | 90 | 1010.1 |
| 20260507044757 | 37 | 126 | 0.0 | 2.6 | 0.08 | 0.08 | 0.08 | 90 | 1010.1 |
| 20260507044658 | 37 | 126 | 0.0 | 2.6 | 0.08 | 0.08 | 0.08 | 90 | 1010.1 |
| 20260507044557 | 37 | 126 | 0.0 | 2.6 | 0.08 | 0.08 | 0.08 | 90 | 1010.1 |
| 20260507044358 | 37 | 126 | 0.0 | 2.6 | 0.08 | 0.08 | 0.08 | 89 | 1010.1 |
| 20260507044257 | 37 | 126 | 0.0 | 2.6 | 0.08 | 0.08 | 0.08 | 89 | 1010.1 |
| 20260507044157 | 37 | 126 | 0.9 | 2.6 | 0.08 | 0.08 | 0.08 | 89 | 1010.1 |
| 20260507044058 | 37 | 126 | 0.9 | 2.6 | 0.08 | 0.08 | 0.08 | 89 | 1010.1 |
| 20260507043959 | 37 | 126 | 1.7 | 2.6 | 0.08 | 0.08 | 0.08 | 89 | 1010.1 |
| 20260507043756 | 37 | 126 | 0.9 | 2.6 | 0.08 | 0.08 | 0.08 | 89 | 1010.1 |
| 20260507043657 | 37 | 126 | 0.9 | 2.6 | 0.08 | 0.08 | 0.08 | 89 | 1010.0 |
| 20260507043559 | 37 | 126 | 0.9 | 2.6 | 0.08 | 0.08 | 0.08 | 89 | 1010.0 |
| 20260507043458 | 37 | 126 | 0.9 | 2.6 | 0.08 | 0.08 | 0.08 | 88 | 1010.1 |
| 20260507043357 | 37 | 126 | 1.7 | 2.6 | 0.08 | 0.08 | 0.08 | 88 | 1010.1 |
| 20260507043257 | 37 | 126 | 2.6 | 2.6 | 0.08 | 0.08 | 0.08 | 89 | 1010.1 |
| 20260507043157 | 37 | 126 | 1.7 | 3.5 | 0.08 | 0.08 | 0.08 | 89 | 1010.1 |
| 20260507043057 | 37 | 126 | 1.7 | 3.5 | 0.08 | 0.08 | 0.08 | 89 | 1010.1 |
| 20260507043000 | 37 | 126 | 2.6 | 3.5 | 0.08 | 0.08 | 0.08 | 89 | 1010.1 |
| 20260507042858 | 37 | 126 | 1.7 | 3.5 | 0.08 | 0.08 | 0.08 | 89 | 1010.1 |
| 20260507042757 | 37 | 126 | 1.7 | 5.2 | 0.08 | 0.08 | 0.08 | 89 | 1010.1 |
| 20260507042657 | 37 | 126 | 0.9 | 5.2 | 0.08 | 0.08 | 0.08 | 88 | 1010.2 |
| 20260507042557 | 37 | 126 | 0.9 | 5.2 | 0.08 | 0.08 | 0.08 | 88 | 1010.1 |
| 20260507042357 | 37 | 125 | 2.6 | 5.2 | 0.08 | 0.08 | 0.08 | 88 | 1010.1 |
| 20260507042257 | 37 | 115 | 2.6 | 5.2 | 0.08 | 0.08 | 0.08 | 88 | 1010.2 |
| 20260507041958 | 37 | 107 | 3.5 | 5.2 | 0.07 | 0.07 | 0.07 | 88 | 1010.2 |
| 20260507041858 | 37 | 91 | 5.2 | 5.2 | 0.07 | 0.07 | 0.07 | 88 | 1010.2 |
| 20260507041757 | 37 | 96 | 3.5 | 5.2 | 0.07 | 0.07 | 0.07 | 87 | 1010.2 |
| 20260507041658 | 37 | 95 | 2.6 | 5.2 | 0.07 | 0.07 | 0.07 | 87 | 1010.2 |
| 20260507041558 | 37 | 99 | 1.7 | 5.2 | 0.07 | 0.07 | 0.07 | 87 | 1010.2 |
| 20260507041458 | 37 | 115 | 3.5 | 5.2 | 0.07 | 0.07 | 0.07 | 87 | 1010.2 |
| 20260507041358 | 37 | 155 | 1.7 | 4.3 | 0.07 | 0.07 | 0.07 | 87 | 1010.2 |
| 20260507041258 | 37 | 156 | 1.7 | 4.3 | 0.07 | 0.07 | 0.07 | 87 | 1010.2 |
| 20260507041158 | 37 | 161 | 3.5 | 7.8 | 0.07 | 0.07 | 0.07 | 87 | 1010.2 |
| 20260507041058 | 37 | 161 | 3.5 | 7.8 | 0.07 | 0.07 | 0.07 | 87 | 1010.2 |
| 20260507040958 | 37 | 163 | 4.3 | 7.8 | 0.06 | 0.06 | 0.06 | 86 | 1010.2 |
| 20260507040857 | 37 | 150 | 2.6 | 7.8 | 0.06 | 0.06 | 0.06 | 86 | 1010.2 |
| 20260507040757 | 37 | 150 | 2.6 | 7.8 | 0.06 | 0.06 | 0.06 | 86 | 1010.2 |
| 20260507040658 | 37 | 147 | 3.5 | 7.8 | 0.06 | 0.06 | 0.06 | 86 | 1010.3 |
| 20260507040558 | 37 | 178 | 1.7 | 10.4 | 0.05 | 0.05 | 0.05 | 86 | 1010.2 |
| 20260507040500 | 37 | 178 | 2.6 | 10.4 | 0.05 | 0.05 | 0.05 | 85 | 1010.2 |
| 20260507040401 | 37 | 178 | 1.7 | 11.3 | 0.04 | 0.04 | 0.04 | 85 | 1010.2 |
| 20260507040156 | 38 | 151 | 4.3 | 12.2 | 0.04 | 0.04 | 0.04 | 85 | 1010.2 |
| 20260507040059 | 38 | 181 | 3.5 | 12.2 | 0.03 | 0.03 | 0.03 | 84 | 1010.1 |
| 20260507035959 | 38 | 168 | 4.3 | 12.2 | 0.03 | 0.03 | 0.03 | 84 | 1010.2 |
| 20260507035857 | 38 | 191 | 3.5 | 12.2 | 0.03 | 0.03 | 0.03 | 83 | 1010.1 |
| 20260507035757 | 38 | 167 | 7.8 | 12.2 | 0.03 | 0.03 | 0.03 | 83 | 1010.1 |
| 20260507035658 | 39 | 194 | 7.0 | 13.0 | 0.02 | 0.02 | 0.02 | 82 | 1010.1 |
| 20260507035556 | 39 | 155 | 11.3 | 13.0 | 0.02 | 0.02 | 0.02 | 81 | 1010.1 |
| 20260507035459 | 39 | 194 | 8.7 | 13.0 | 0.01 | 0.01 | 0.01 | 81 | 1010.1 |
| 20260507035358 | 40 | 184 | 6.1 | 13.0 | 0.01 | 0.01 | 0.01 | 80 | 1010.0 |
| 20260507035258 | 40 | 214 | 7.0 | 13.0 | 0.01 | 0.01 | 0.01 | 79 | 1010.0 |
| 20260507035158 | 40 | 161 | 6.1 | 13.0 | 0.01 | 0.01 | 0.01 | 78 | 1010.0 |
| 20260507035057 | 41 | 189 | 4.3 | 13.0 | 0.01 | 0.01 | 0.01 | 77 | 1010.0 |
| 20260507035000 | 41 | 205 | 7.8 | 13.0 | 0.00 | 0.00 | 0.00 | 75 | 1009.9 |
| 20260507034857 | 41 | 240 | 9.6 | 9.6 | 0.00 | 0.00 | 0.00 | 73 | 1009.9 |
| 20260507034757 | 42 | 178 | 5.2 | 8.7 | 0.00 | 0.00 | 0.00 | 71 | 1009.9 |
| 20260507034658 | 42 | 180 | 6.1 | 8.7 | 0.00 | 0.00 | 0.00 | 71 | 1009.8 |
| 20260507034557 | 42 | 202 | 7.8 | 9.6 | 0.00 | 0.00 | 0.00 | 71 | 1009.8 |
| 20260507034459 | 42 | 217 | 6.1 | 8.7 | 0.00 | 0.00 | 0.00 | 70 | 1009.7 |
| 20260507034357 | 42 | 238 | 8.7 | 8.7 | 0.00 | 0.00 | 0.00 | 69 | 1009.6 |
| 20260507034257 | 42 | 165 | 3.5 | 7.8 | 0.00 | 0.00 | 0.00 | 69 | 1009.6 |
| 20260507034157 | 42 | 151 | 3.5 | 7.8 | 0.00 | 0.00 | 0.00 | 68 | 1009.6 |
| 20260507033959 | 42 | 200 | 6.1 | 7.0 | 0.00 | 0.00 | 0.00 | 70 | 1009.5 |
| 20260507033856 | 42 | 171 | 6.1 | 6.1 | 0.00 | 0.00 | 0.00 | 71 | 1009.5 |
| 20260507033756 | 42 | 274 | 2.6 | 6.1 | 0.00 | 0.00 | 0.00 | 71 | 1009.5 |
| 20260507033558 | 42 | 232 | 5.2 | 7.0 | 0.00 | 0.00 | 0.00 | 71 | 1009.5 |
| 20260507033500 | 42 | 279 | 0.9 | 6.1 | 0.00 | 0.00 | 0.00 | 71 | 1009.4 |
| 20260507033257 | 43 | 273 | 3.5 | 5.2 | 0.00 | 0.00 | 0.00 | 71 | 1009.3 |
| 20260507033158 | 43 | 273 | 2.6 | 3.5 | 0.00 | 0.00 | 0.00 | 71 | 1009.3 |
| 20260507033057 | 43 | 250 | 3.5 | 3.5 | 0.00 | 0.00 | 0.00 | 71 | 1009.3 |
| 20260507032959 | 43 | 99 | 1.7 | 2.6 | 0.00 | 0.00 | 0.00 | 71 | 1009.2 |
| 20260507032857 | 43 | 99 | 0.0 | 2.6 | 0.00 | 0.00 | 0.00 | 71 | 1009.3 |
| 20260507032657 | 42 | 99 | 0.9 | 7.0 | 0.00 | 0.00 | 0.00 | 71 | 1009.2 |
| 20260507032459 | 42 | 123 | 1.7 | 7.8 | 0.00 | 0.00 | 0.00 | 71 | 1009.2 |
| 20260507032358 | 42 | 123 | 0.0 | 7.8 | 0.00 | 0.00 | 0.00 | 71 | 1009.1 |
| 20260507032256 | 42 | 123 | 0.9 | 7.8 | 0.00 | 0.00 | 0.00 | 71 | 1009.1 |
| 20260507032158 | 42 | 123 | 1.7 | 7.8 | 0.00 | 0.00 | 0.00 | 71 | 1009.1 |
| 20260507032058 | 43 | 124 | 0.9 | 7.8 | 0.00 | 0.00 | 0.00 | 71 | 1009.2 |
| 20260507032006 | 43 | 124 | 0.0 | 7.8 | 0.00 | 0.00 | 0.00 | 71 | 1009.2 |
| 20260507031858 | 43 | 124 | 2.6 | 7.8 | 0.00 | 0.00 | 0.00 | 71 | 1009.2 |
| 20260507031758 | 42 | 140 | 3.5 | 7.8 | 0.00 | 0.00 | 0.00 | 71 | 1009.2 |
| 20260507031659 | 43 | 158 | 4.3 | 4.3 | 0.00 | 0.00 | 0.00 | 72 | 1009.2 |
| 20260507031557 | 43 | 20 | 1.7 | 4.3 | 0.00 | 0.00 | 0.00 | 74 | 1009.2 |
| 20260507031459 | 43 | 19 | 1.7 | 4.3 | 0.00 | 0.00 | 0.00 | 74 | 1009.2 |
| 20260507031357 | 43 | 15 | 2.6 | 4.3 | 0.00 | 0.00 | 0.00 | 73 | 1009.1 |
| 20260507031256 | 43 | 13 | 1.7 | 4.3 | 0.00 | 0.00 | 0.00 | 73 | 1009.2 |
| 20260507031158 | 43 | 13 | 3.5 | 6.1 | 0.00 | 0.00 | 0.00 | 73 | 1009.2 |
| 20260507031056 | 43 | 17 | 2.6 | 6.1 | 0.00 | 0.00 | 0.00 | 72 | 1009.2 |
| 20260507030958 | 43 | 12 | 2.6 | 6.1 | 0.00 | 0.00 | 0.00 | 71 | 1009.1 |
| 20260507030857 | 43 | 306 | 2.6 | 6.1 | 0.00 | 0.00 | 0.00 | 71 | 1009.1 |
| 20260507030758 | 43 | 279 | 2.6 | 6.1 | 0.00 | 0.00 | 0.00 | 71 | 1009.1 |
| 20260507030459 | 43 | 269 | 1.7 | 6.1 | 0.00 | 0.00 | 0.00 | 70 | 1009.2 |
| 20260507030356 | 43 | 269 | 5.2 | 6.1 | 0.00 | 0.00 | 0.00 | 68 | 1009.1 |
| 20260507030258 | 43 | 191 | 2.6 | 6.1 | 0.00 | 0.00 | 0.00 | 66 | 1009.1 |
| 20260507030158 | 43 | 240 | 1.7 | 6.1 | 0.00 | 0.00 | 0.00 | 66 | 1009.1 |
| 20260507025959 | 43 | 257 | 2.6 | 6.1 | 0.00 | 0.00 | 0.00 | 67 | 1009.1 |
| 20260507025858 | 43 | 257 | 3.5 | 6.1 | 0.00 | 0.00 | 0.00 | 67 | 1009.0 |
| 20260507025757 | 43 | 269 | 0.9 | 6.1 | 0.00 | 0.00 | 0.00 | 66 | 1009.1 |
| 20260507025656 | 43 | 134 | 0.0 | 8.7 | 0.00 | 0.00 | 0.00 | 66 | 1009.0 |
| 20260507025557 | 43 | 134 | 1.7 | 8.7 | 0.00 | 0.00 | 0.00 | 65 | 1009.0 |
| 20260507025458 | 43 | 134 | 6.1 | 8.7 | 0.00 | 0.00 | 0.00 | 65 | 1009.0 |
| 20260507025357 | 43 | 134 | 3.5 | 8.7 | 0.00 | 0.00 | 0.00 | 66 | 1009.0 |
| 20260507025258 | 43 | 288 | 0.9 | 8.7 | 0.00 | 0.00 | 0.00 | 67 | 1009.0 |
| 20260507025158 | 43 | 294 | 4.3 | 8.7 | 0.00 | 0.00 | 0.00 | 65 | 1009.0 |
| 20260507024959 | 43 | 42 | 4.3 | 8.7 | 0.00 | 0.00 | 0.00 | 67 | 1009.1 |
| 20260507024858 | 43 | 38 | 6.1 | 8.7 | 0.00 | 0.00 | 0.00 | 70 | 1009.0 |
| 20260507024658 | 43 | 340 | 2.6 | 5.2 | 0.00 | 0.00 | 0.00 | 70 | 1009.0 |
| 20260507024459 | 43 | 316 | 3.5 | 6.1 | 0.00 | 0.00 | 0.00 | 71 | 1009.0 |
| 20260507024358 | 43 | 308 | 2.6 | 6.1 | 0.00 | 0.00 | 0.00 | 72 | 1009.0 |
| 20260507024256 | 43 | 308 | 0.9 | 6.1 | 0.00 | 0.00 | 0.00 | 71 | 1009.0 |
| 20260507024157 | 43 | 307 | 0.9 | 6.1 | 0.00 | 0.00 | 0.00 | 71 | 1009.0 |
| 20260507024058 | 43 | 295 | 1.7 | 6.1 | 0.00 | 0.00 | 0.00 | 71 | 1009.0 |
| 20260507023958 | 43 | 296 | 2.6 | 6.1 | 0.00 | 0.00 | 0.00 | 71 | 1009.0 |
| 20260507023857 | 43 | 295 | 2.6 | 6.1 | 0.00 | 0.00 | 0.00 | 71 | 1009.0 |
| 20260507023757 | 43 | 289 | 1.7 | 6.1 | 0.00 | 0.00 | 0.00 | 69 | 1009.0 |
| 20260507023658 | 43 | 304 | 3.5 | 6.1 | 0.00 | 0.00 | 0.00 | 68 | 1009.0 |
| 20260507023557 | 43 | 306 | 3.5 | 6.1 | 0.00 | 0.00 | 0.00 | 68 | 1008.9 |
| 20260507023500 | 43 | 313 | 3.5 | 5.2 | 0.00 | 0.00 | 0.00 | 68 | 1008.9 |
| 20260507023358 | 43 | 288 | 6.1 | 6.1 | 0.00 | 0.00 | 0.00 | 68 | 1008.8 |
| 20260507023257 | 43 | 303 | 1.7 | 4.3 | 0.00 | 0.00 | 0.00 | 68 | 1008.9 |
| 20260507023157 | 43 | 285 | 2.6 | 7.8 | 0.00 | 0.00 | 0.00 | 68 | 1009.0 |
| 20260507023056 | 43 | 262 | 1.7 | 7.8 | 0.00 | 0.00 | 0.00 | 69 | 1008.9 |
| 20260507022958 | 43 | 209 | 2.6 | 9.6 | 0.00 | 0.00 | 0.00 | 71 | 1008.9 |
| 20260507022756 | 43 | 183 | 0.0 | 9.6 | 0.00 | 0.00 | 0.00 | 72 | 1008.9 |
| 20260507022657 | 43 | 183 | 0.9 | 9.6 | 0.00 | 0.00 | 0.00 | 72 | 1009.0 |
| 20260507022557 | 43 | 183 | 0.9 | 9.6 | 0.00 | 0.00 | 0.00 | 73 | 1008.9 |
| 20260507022459 | 43 | 183 | 0.0 | 9.6 | 0.00 | 0.00 | 0.00 | 73 | 1008.9 |
| 20260507022358 | 43 | 183 | 3.5 | 9.6 | 0.00 | 0.00 | 0.00 | 72 | 1008.8 |
| 20260507022157 | 43 | 136 | 6.1 | 9.6 | 0.00 | 0.00 | 0.00 | 67 | 1008.9 |
| 20260507022056 | 43 | 181 | 2.6 | 6.1 | 0.00 | 0.00 | 0.00 | 70 | 1008.9 |
| 20260507022000 | 43 | 263 | 0.9 | 6.1 | 0.00 | 0.00 | 0.00 | 69 | 1009.0 |
| 20260507021858 | 43 | 272 | 2.6 | 6.1 | 0.00 | 0.00 | 0.00 | 71 | 1008.9 |
| 20260507021758 | 44 | 272 | 0.0 | 6.1 | 0.00 | 0.00 | 0.00 | 71 | 1008.9 |
| 20260507021658 | 44 | 272 | 1.7 | 6.1 | 0.00 | 0.00 | 0.00 | 68 | 1008.8 |
| 20260507021459 | 44 | 272 | 3.5 | 6.1 | 0.00 | 0.00 | 0.00 | 66 | 1008.9 |
| 20260507021358 | 44 | 275 | 2.6 | 6.1 | 0.00 | 0.00 | 0.00 | 66 | 1008.8 |
| 20260507021258 | 44 | 277 | 2.6 | 6.1 | 0.00 | 0.00 | 0.00 | 66 | 1008.8 |
| 20260507021157 | 44 | 278 | 6.1 | 6.1 | 0.00 | 0.00 | 0.00 | 67 | 1008.8 |
| 20260507020958 | 44 | 300 | 2.6 | 4.3 | 0.00 | 0.00 | 0.00 | 68 | 1008.8 |
| 20260507020858 | 44 | 183 | 0.9 | 7.0 | 0.00 | 0.00 | 0.00 | 68 | 1008.8 |
| 20260507020758 | 44 | 183 | 1.7 | 7.0 | 0.00 | 0.00 | 0.00 | 68 | 1008.8 |
| 20260507020657 | 43 | 183 | 0.0 | 7.0 | 0.00 | 0.00 | 0.00 | 69 | 1008.8 |
| 20260507020459 | 43 | 183 | 0.9 | 7.0 | 0.00 | 0.00 | 0.00 | 69 | 1008.8 |
| 20260507020256 | 43 | 180 | 1.7 | 7.0 | 0.00 | 0.00 | 0.00 | 67 | 1008.8 |
| 20260507020159 | 43 | 175 | 1.7 | 7.0 | 0.00 | 0.00 | 0.00 | 68 | 1008.8 |
| 20260507020058 | 43 | 167 | 2.6 | 7.0 | 0.00 | 0.00 | 0.00 | 68 | 1008.8 |
| 20260507015959 | 43 | 171 | 6.1 | 7.8 | 0.00 | 0.00 | 0.00 | 70 | 1008.8 |
| 20260507015656 | 43 | 103 | 5.2 | 5.2 | 0.00 | 0.00 | 0.00 | 79 | 1008.8 |
| 20260507015557 | 43 | 311 | 0.9 | 2.6 | 0.00 | 0.00 | 0.00 | 79 | 1008.7 |
| 20260507015458 | 43 | 312 | 1.7 | 2.6 | 0.00 | 0.00 | 0.00 | 78 | 1008.7 |
| 20260507015358 | 43 | 313 | 1.7 | 2.6 | 0.00 | 0.00 | 0.00 | 78 | 1008.7 |
| 20260507015257 | 43 | 312 | 0.0 | 2.6 | 0.00 | 0.00 | 0.00 | 77 | 1008.8 |
| 20260507015159 | 43 | 313 | 1.7 | 2.6 | 0.00 | 0.00 | 0.00 | 77 | 1008.7 |
| 20260507015058 | 43 | 312 | 0.9 | 2.6 | 0.00 | 0.00 | 0.00 | 78 | 1008.7 |
| 20260507014959 | 43 | 312 | 0.9 | 2.6 | 0.00 | 0.00 | 0.00 | 77 | 1008.8 |
| 20260507014757 | 43 | 312 | 0.9 | 2.6 | 0.00 | 0.00 | 0.00 | 77 | 1008.7 |
| 20260507014658 | 43 | 317 | 0.9 | 2.6 | 0.00 | 0.00 | 0.00 | 77 | 1008.7 |
| 20260507014557 | 43 | 318 | 0.9 | 2.6 | 0.00 | 0.00 | 0.00 | 77 | 1008.7 |
| 20260507014459 | 43 | 317 | 1.7 | 2.6 | 0.00 | 0.00 | 0.00 | 77 | 1008.7 |
| 20260507014357 | 43 | 317 | 1.7 | 2.6 | 0.00 | 0.00 | 0.00 | 78 | 1008.7 |
| 20260507014258 | 43 | 317 | 1.7 | 2.6 | 0.00 | 0.00 | 0.00 | 77 | 1008.6 |
| 20260507014158 | 43 | 317 | 0.9 | 2.6 | 0.00 | 0.00 | 0.00 | 76 | 1008.7 |
| 20260507014057 | 43 | 317 | 0.9 | 2.6 | 0.00 | 0.00 | 0.00 | 76 | 1008.7 |
| 20260507013958 | 43 | 317 | 0.0 | 2.6 | 0.00 | 0.00 | 0.00 | 76 | 1008.6 |
| 20260507013858 | 43 | 317 | 0.9 | 2.6 | 0.00 | 0.00 | 0.00 | 76 | 1008.7 |
| 20260507013759 | 43 | 317 | 1.7 | 2.6 | 0.00 | 0.00 | 0.00 | 76 | 1008.7 |
| 20260507013558 | 43 | 317 | 0.9 | 2.6 | 0.00 | 0.00 | 0.00 | 76 | 1008.7 |
| 20260507013459 | 43 | 317 | 0.0 | 2.6 | 0.00 | 0.00 | 0.00 | 77 | 1008.7 |
| 20260507013357 | 43 | 317 | 1.7 | 2.6 | 0.00 | 0.00 | 0.00 | 78 | 1008.6 |
| 20260507013158 | 43 | 317 | 1.7 | 2.6 | 0.00 | 0.00 | 0.00 | 79 | 1008.7 |
| 20260507013058 | 43 | 317 | 1.7 | 2.6 | 0.00 | 0.00 | 0.00 | 79 | 1008.6 |
| 20260507012959 | 43 | 317 | 0.0 | 2.6 | 0.00 | 0.00 | 0.00 | 79 | 1008.7 |
| 20260507012859 | 42 | 317 | 1.7 | 2.6 | 0.00 | 0.00 | 0.00 | 80 | 1008.7 |
| 20260507012657 | 42 | 317 | 0.0 | 1.7 | 0.00 | 0.00 | 0.00 | 80 | 1008.7 |
| 20260507012605 | 42 | 317 | 0.0 | 1.7 | 0.00 | 0.00 | 0.00 | 81 | 1008.7 |
| 20260507012459 | 42 | 317 | 0.9 | 1.7 | 0.00 | 0.00 | 0.00 | 81 | 1008.7 |
| 20260507012357 | 42 | 317 | 1.7 | 1.7 | 0.00 | 0.00 | 0.00 | 81 | 1008.7 |
| 20260507012306 | 42 | 317 | 0.9 | 1.7 | 0.00 | 0.00 | 0.00 | 80 | 1008.7 |
| 20260507012159 | 42 | 317 | 0.0 | 2.6 | 0.00 | 0.00 | 0.00 | 79 | 1008.8 |
| 20260507012058 | 42 | 318 | 0.0 | 2.6 | 0.00 | 0.00 | 0.00 | 78 | 1008.7 |
| 20260507012000 | 42 | 317 | 0.9 | 2.6 | 0.00 | 0.00 | 0.00 | 78 | 1008.8 |
| 20260507011857 | 42 | 317 | 0.9 | 2.6 | 0.00 | 0.00 | 0.00 | 79 | 1008.7 |
| 20260507011758 | 42 | 317 | 0.0 | 2.6 | 0.00 | 0.00 | 0.00 | 80 | 1008.8 |
| 20260507011556 | 42 | 317 | 0.9 | 3.5 | 0.00 | 0.00 | 0.00 | 81 | 1008.8 |
| 20260507011458 | 42 | 317 | 0.9 | 3.5 | 0.00 | 0.00 | 0.00 | 80 | 1008.8 |
| 20260507011256 | 42 | 318 | 0.9 | 3.5 | 0.00 | 0.00 | 0.00 | 78 | 1008.8 |
| 20260507011159 | 42 | 318 | 1.7 | 3.5 | 0.00 | 0.00 | 0.00 | 79 | 1008.8 |
| 20260507011056 | 42 | 318 | 1.7 | 3.5 | 0.00 | 0.00 | 0.00 | 80 | 1008.8 |
| 20260507010959 | 42 | 318 | 1.7 | 3.5 | 0.00 | 0.00 | 0.00 | 79 | 1008.8 |
| 20260507010857 | 42 | 318 | 0.9 | 3.5 | 0.00 | 0.00 | 0.00 | 79 | 1008.7 |
| 20260507010757 | 42 | 318 | 1.7 | 3.5 | 0.00 | 0.00 | 0.00 | 79 | 1008.8 |
| 20260507010657 | 42 | 48 | 2.6 | 3.5 | 0.00 | 0.00 | 0.00 | 79 | 1008.8 |
| 20260507010558 | 42 | 51 | 0.0 | 4.3 | 0.00 | 0.00 | 0.00 | 79 | 1008.8 |
| 20260507010459 | 42 | 51 | 0.0 | 4.3 | 0.00 | 0.00 | 0.00 | 79 | 1008.8 |
| 20260507010257 | 41 | 51 | 0.9 | 4.3 | 0.00 | 0.00 | 0.00 | 80 | 1008.8 |
| 20260507010157 | 41 | 52 | 0.9 | 4.3 | 0.00 | 0.00 | 0.00 | 80 | 1008.8 |
| 20260507005959 | 41 | 51 | 0.9 | 4.3 | 0.00 | 0.00 | 0.00 | 80 | 1008.7 |
| 20260507005857 | 41 | 52 | 2.6 | 4.3 | 0.00 | 0.00 | 0.00 | 80 | 1008.7 |
| 20260507005757 | 41 | 52 | 3.5 | 4.3 | 0.00 | 0.00 | 0.00 | 80 | 1008.7 |
| 20260507005559 | 41 | 16 | 1.7 | 4.3 | 0.00 | 0.00 | 0.00 | 80 | 1008.7 |
| 20260507005459 | 41 | 347 | 1.7 | 3.5 | 0.00 | 0.00 | 0.00 | 80 | 1008.8 |
| 20260507005357 | 41 | 334 | 2.6 | 3.5 | 0.00 | 0.00 | 0.00 | 80 | 1008.8 |
| 20260507005257 | 41 | 314 | 2.6 | 3.5 | 0.00 | 0.00 | 0.00 | 80 | 1008.7 |
| 20260507004858 | 41 | 277 | 2.6 | 3.5 | 0.00 | 0.00 | 0.00 | 81 | 1008.7 |
| 20260507004756 | 41 | 284 | 0.9 | 6.1 | 0.00 | 0.00 | 0.00 | 80 | 1008.8 |
| 20260507004557 | 41 | 284 | 1.7 | 6.1 | 0.00 | 0.00 | 0.00 | 80 | 1008.7 |
| 20260507004459 | 41 | 284 | 2.6 | 6.1 | 0.00 | 0.00 | 0.00 | 80 | 1008.7 |
| 20260507004257 | 41 | 285 | 2.6 | 6.1 | 0.00 | 0.00 | 0.00 | 80 | 1008.6 |
| 20260507004159 | 41 | 285 | 0.0 | 6.1 | 0.00 | 0.00 | 0.00 | 80 | 1008.7 |
| 20260507004057 | 41 | 285 | 3.5 | 6.1 | 0.00 | 0.00 | 0.00 | 80 | 1008.7 |
| 20260507004000 | 41 | 284 | 5.2 | 6.1 | 0.00 | 0.00 | 0.00 | 80 | 1008.7 |
| 20260507003857 | 41 | 302 | 4.3 | 6.1 | 0.00 | 0.00 | 0.00 | 80 | 1008.7 |
| 20260507003757 | 41 | 292 | 2.6 | 6.1 | 0.00 | 0.00 | 0.00 | 79 | 1008.6 |
| 20260507003657 | 41 | 282 | 1.7 | 6.1 | 0.00 | 0.00 | 0.00 | 79 | 1008.7 |
| 20260507003557 | 41 | 281 | 1.7 | 6.1 | 0.00 | 0.00 | 0.00 | 79 | 1008.7 |
| 20260507003459 | 41 | 280 | 6.1 | 6.1 | 0.00 | 0.00 | 0.00 | 79 | 1008.6 |
| 20260507003357 | 41 | 286 | 2.6 | 6.1 | 0.00 | 0.00 | 0.00 | 79 | 1008.6 |
| 20260507003257 | 41 | 271 | 3.5 | 6.1 | 0.00 | 0.00 | 0.00 | 79 | 1008.6 |
| 20260507003157 | 41 | 260 | 1.7 | 6.1 | 0.00 | 0.00 | 0.00 | 78 | 1008.6 |
| 20260507003058 | 41 | 260 | 5.2 | 6.1 | 0.00 | 0.00 | 0.00 | 78 | 1008.6 |
| 20260507002758 | 42 | 302 | 4.3 | 6.1 | 0.00 | 0.00 | 0.00 | 78 | 1008.6 |
| 20260507002657 | 42 | 326 | 3.5 | 7.0 | 0.00 | 0.00 | 0.00 | 78 | 1008.6 |
| 20260507002557 | 42 | 275 | 0.9 | 7.0 | 0.00 | 0.00 | 0.00 | 78 | 1008.6 |
| 20260507002458 | 42 | 263 | 3.5 | 7.0 | 0.00 | 0.00 | 0.00 | 78 | 1008.6 |
| 20260507002357 | 42 | 284 | 5.2 | 7.0 | 0.00 | 0.00 | 0.00 | 79 | 1008.6 |
| 20260507002257 | 42 | 297 | 1.7 | 7.0 | 0.00 | 0.00 | 0.00 | 79 | 1008.6 |
| 20260507002158 | 41 | 294 | 0.9 | 7.0 | 0.00 | 0.00 | 0.00 | 79 | 1008.5 |
| 20260507002056 | 41 | 276 | 2.6 | 7.0 | 0.00 | 0.00 | 0.00 | 79 | 1008.5 |
| 20260507001959 | 41 | 304 | 2.6 | 7.0 | 0.00 | 0.00 | 0.00 | 79 | 1008.5 |
| 20260507001858 | 41 | 290 | 3.5 | 7.0 | 0.00 | 0.00 | 0.00 | 79 | 1008.5 |
| 20260507001657 | 41 | 310 | 3.5 | 5.2 | 0.00 | 0.00 | 0.00 | 80 | 1008.5 |
| 20260507001556 | 41 | 350 | 2.6 | 5.2 | 0.00 | 0.00 | 0.00 | 81 | 1008.5 |
| 20260507001459 | 41 | 336 | 2.6 | 6.1 | 0.00 | 0.00 | 0.00 | 81 | 1008.5 |
| 20260507001357 | 41 | 338 | 1.7 | 6.1 | 0.00 | 0.00 | 0.00 | 81 | 1008.5 |
| 20260507001257 | 41 | 340 | 3.5 | 7.0 | 0.00 | 0.00 | 0.00 | 81 | 1008.5 |
| 20260507001158 | 41 | 342 | 2.6 | 7.0 | 0.00 | 0.00 | 0.00 | 80 | 1008.5 |
| 20260507001056 | 41 | 342 | 2.6 | 7.0 | 0.00 | 0.00 | 0.00 | 80 | 1008.5 |
| 20260507000958 | 41 | 343 | 4.3 | 7.0 | 0.00 | 0.00 | 0.00 | 81 | 1008.5 |
| 20260507000857 | 41 | 342 | 2.6 | 7.0 | 0.00 | 0.00 | 0.00 | 81 | 1008.5 |
| 20260507000757 | 41 | 346 | 3.5 | 7.0 | 0.00 | 0.00 | 0.00 | 81 | 1008.5 |
| 20260507000657 | 41 | 317 | 3.5 | 7.0 | 0.00 | 0.00 | 0.00 | 81 | 1008.5 |
| 20260507000557 | 41 | 336 | 2.6 | 7.0 | 0.00 | 0.00 | 0.00 | 81 | 1008.5 |
| 20260507000458 | 41 | 330 | 5.2 | 7.8 | 0.00 | 0.00 | 0.00 | 81 | 1008.5 |
| 20260507000259 | 42 | 294 | 4.3 | 7.8 | 0.00 | 0.00 | 0.00 | 82 | 1008.5 |
| 20260507000157 | 41 | 298 | 2.6 | 7.8 | 0.00 | 0.00 | 0.00 | 82 | 1008.5 |
| 20260507000058 | 41 | 316 | 2.6 | 7.8 | 0.00 | 0.00 | 0.00 | 81 | 1008.4 |
| 20260507000003 | 41 | 315 | 1.7 | 7.8 | 0.00 | 0.00 | 0.00 | 81 | 1008.5 |
| 20260506235858 | 41 | 306 | 1.7 | 7.8 | 0.00 | 0.00 | 0.00 | 81 | 1008.5 |
| 20260506235758 | 41 | 315 | 4.3 | 7.8 | 0.00 | 0.00 | 0.00 | 81 | 1008.4 |
| 20260506235658 | 42 | 296 | 6.1 | 7.8 | 0.00 | 0.00 | 0.00 | 80 | 1008.5 |
| 20260506235500 | 42 | 316 | 3.5 | 5.2 | 0.00 | 0.00 | 0.00 | 80 | 1008.4 |
| 20260506235359 | 42 | 310 | 2.6 | 7.0 | 0.00 | 0.00 | 0.00 | 80 | 1008.4 |
| 20260506235258 | 42 | 311 | 3.5 | 7.0 | 0.00 | 0.00 | 0.00 | 80 | 1008.4 |
| 20260506235059 | 42 | 286 | 2.6 | 8.7 | 0.00 | 0.00 | 0.00 | 81 | 1008.4 |
| 20260506235004 | 42 | 273 | 1.7 | 8.7 | 0.00 | 0.00 | 0.00 | 80 | 1008.4 |
| 20260506234859 | 42 | 270 | 2.6 | 8.7 | 0.00 | 0.00 | 0.00 | 79 | 1008.4 |
| 20260506234758 | 42 | 271 | 2.6 | 8.7 | 0.00 | 0.00 | 0.00 | 79 | 1008.3 |
| 20260506234657 | 42 | 265 | 5.2 | 8.7 | 0.00 | 0.00 | 0.00 | 79 | 1008.4 |
| 20260506234601 | 42 | 286 | 0.9 | 8.7 | 0.00 | 0.00 | 0.00 | 79 | 1008.4 |
| 20260506234401 | 42 | 9 | 6.1 | 8.7 | 0.00 | 0.00 | 0.00 | 79 | 1008.3 |
| 20260506234259 | 42 | 340 | 7.8 | 8.7 | 0.00 | 0.00 | 0.00 | 79 | 1008.4 |
| 20260506234157 | 42 | 333 | 1.7 | 8.7 | 0.00 | 0.00 | 0.00 | 78 | 1008.3 |
| 20260506234059 | 42 | 333 | 7.0 | 8.7 | 0.00 | 0.00 | 0.00 | 78 | 1008.3 |
| 20260506234001 | 42 | 340 | 5.2 | 8.7 | 0.00 | 0.00 | 0.00 | 78 | 1008.3 |
| 20260506233858 | 42 | 312 | 7.0 | 8.7 | 0.00 | 0.00 | 0.00 | 78 | 1008.3 |
| 20260506233758 | 42 | 322 | 5.2 | 6.1 | 0.00 | 0.00 | 0.00 | 78 | 1008.3 |
| 20260506233658 | 42 | 294 | 1.7 | 6.1 | 0.00 | 0.00 | 0.00 | 78 | 1008.3 |
| 20260506233559 | 42 | 293 | 1.7 | 6.1 | 0.00 | 0.00 | 0.00 | 78 | 1008.2 |
| 20260506233500 | 42 | 293 | 0.9 | 6.1 | 0.00 | 0.00 | 0.00 | 78 | 1008.2 |
| 20260506233359 | 42 | 293 | 2.6 | 6.1 | 0.00 | 0.00 | 0.00 | 78 | 1008.2 |
| 20260506233057 | 42 | 306 | 4.3 | 9.6 | 0.00 | 0.00 | 0.00 | 79 | 1008.3 |
| 20260506233000 | 42 | 328 | 0.9 | 9.6 | 0.00 | 0.00 | 0.00 | 78 | 1008.2 |
| 20260506232858 | 42 | 328 | 2.6 | 9.6 | 0.00 | 0.00 | 0.00 | 78 | 1008.2 |
| 20260506232658 | 43 | 360 | 3.5 | 9.6 | 0.00 | 0.00 | 0.00 | 77 | 1008.2 |
| 20260506232559 | 43 | 292 | 3.5 | 9.6 | 0.00 | 0.00 | 0.00 | 76 | 1008.2 |
| 20260506232459 | 43 | 274 | 7.0 | 9.6 | 0.00 | 0.00 | 0.00 | 75 | 1008.2 |
| 20260506232359 | 43 | 340 | 3.5 | 9.6 | 0.00 | 0.00 | 0.00 | 74 | 1008.2 |
| 20260506232259 | 43 | 313 | 3.5 | 9.6 | 0.00 | 0.00 | 0.00 | 74 | 1008.2 |
| 20260506232159 | 43 | 338 | 4.3 | 9.6 | 0.00 | 0.00 | 0.00 | 72 | 1008.1 |
| 20260506232100 | 43 | 321 | 2.6 | 9.6 | 0.00 | 0.00 | 0.00 | 69 | 1008.1 |
| 20260506232001 | 44 | 342 | 7.0 | 9.6 | 0.00 | 0.00 | 0.00 | 69 | 1008.1 |
| 20260506231858 | 44 | 355 | 5.2 | 9.6 | 0.00 | 0.00 | 0.00 | 69 | 1008.1 |
| 20260506231758 | 44 | 327 | 7.8 | 9.6 | 0.00 | 0.00 | 0.00 | 68 | 1008.0 |
| 20260506231657 | 44 | 303 | 2.6 | 9.6 | 0.00 | 0.00 | 0.00 | 68 | 1008.1 |
| 20260506231558 | 44 | 301 | 6.1 | 9.6 | 0.00 | 0.00 | 0.00 | 66 | 1008.1 |
| 20260506231504 | 45 | 317 | 8.7 | 9.6 | 0.00 | 0.00 | 0.00 | 65 | 1008.0 |
| 20260506231359 | 45 | 259 | 1.7 | 9.6 | 0.00 | 0.00 | 0.00 | 65 | 1008.0 |
| 20260506231258 | 45 | 266 | 9.6 | 9.6 | 0.00 | 0.00 | 0.00 | 65 | 1008.0 |
| 20260506231158 | 45 | 302 | 4.3 | 7.0 | 0.00 | 0.00 | 0.00 | 65 | 1008.1 |
| 20260506231003 | 46 | 327 | 0.9 | 7.0 | 0.00 | 0.00 | 0.00 | 60 | 1008.0 |
| 20260506230858 | 46 | 336 | 5.2 | 7.0 | 0.00 | 0.00 | 0.00 | 56 | 1008.0 |
| 20260506230759 | 46 | 153 | 1.7 | 5.2 | 0.00 | 0.00 | 0.00 | 55 | 1008.0 |
| 20260506230558 | 46 | 181 | 1.7 | 5.2 | 0.00 | 0.00 | 0.00 | 55 | 1008.0 |
| 20260506230500 | 46 | 159 | 4.3 | 8.7 | 0.00 | 0.00 | 0.00 | 55 | 1008.0 |
| 20260506230358 | 46 | 141 | 6.1 | 8.7 | 0.00 | 0.00 | 0.00 | 56 | 1007.9 |
| 20260506230258 | 46 | 130 | 0.9 | 8.7 | 0.00 | 0.00 | 0.00 | 55 | 1007.9 |
| 20260506230157 | 46 | 130 | 1.7 | 8.7 | 0.00 | 0.00 | 0.00 | 55 | 1008.0 |
| 20260506230058 | 46 | 130 | 4.3 | 8.7 | 0.00 | 0.00 | 0.00 | 56 | 1007.9 |
| 20260506225858 | 46 | 126 | 1.7 | 8.7 | 0.00 | 0.00 | 0.00 | 55 | 1007.9 |
| 20260506225757 | 46 | 130 | 4.3 | 9.6 | 0.00 | 0.00 | 0.00 | 56 | 1007.9 |
| 20260506225557 | 46 | 113 | 3.5 | 9.6 | 0.00 | 0.00 | 0.00 | 56 | 1007.9 |
| 20260506225458 | 46 | 103 | 6.1 | 9.6 | 0.00 | 0.00 | 0.00 | 55 | 1007.9 |
| 20260506225357 | 46 | 125 | 4.3 | 10.4 | 0.00 | 0.00 | 0.00 | 56 | 1007.8 |
| 20260506225257 | 46 | 123 | 4.3 | 10.4 | 0.00 | 0.00 | 0.00 | 57 | 1007.8 |
| 20260506225156 | 46 | 135 | 2.6 | 10.4 | 0.00 | 0.00 | 0.00 | 56 | 1007.9 |
| 20260506225057 | 46 | 121 | 3.5 | 10.4 | 0.00 | 0.00 | 0.00 | 56 | 1007.9 |
| 20260506224958 | 46 | 113 | 7.0 | 10.4 | 0.00 | 0.00 | 0.00 | 56 | 1007.8 |
| 20260506224857 | 46 | 110 | 7.0 | 10.4 | 0.00 | 0.00 | 0.00 | 57 | 1007.8 |
| 20260506224757 | 46 | 84 | 1.7 | 10.4 | 0.00 | 0.00 | 0.00 | 57 | 1007.9 |
| 20260506224556 | 46 | 53 | 4.3 | 10.4 | 0.00 | 0.00 | 0.00 | 56 | 1007.8 |
| 20260506224459 | 46 | 119 | 7.0 | 10.4 | 0.00 | 0.00 | 0.00 | 57 | 1007.8 |
| 20260506224357 | 46 | 100 | 6.1 | 10.4 | 0.00 | 0.00 | 0.00 | 56 | 1007.8 |
| 20260506224257 | 47 | 119 | 8.7 | 10.4 | 0.00 | 0.00 | 0.00 | 57 | 1007.8 |
| 20260506224157 | 47 | 103 | 8.7 | 9.6 | 0.00 | 0.00 | 0.00 | 57 | 1007.8 |
| 20260506224057 | 47 | 40 | 5.2 | 9.6 | 0.00 | 0.00 | 0.00 | 57 | 1007.8 |
| 20260506224000 | 47 | 125 | 7.0 | 9.6 | 0.00 | 0.00 | 0.00 | 57 | 1007.8 |
| 20260506223857 | 46 | 138 | 2.6 | 5.2 | 0.00 | 0.00 | 0.00 | 58 | 1007.7 |
| 20260506223756 | 46 | 208 | 0.9 | 3.5 | 0.00 | 0.00 | 0.00 | 58 | 1007.7 |
| 20260506223657 | 46 | 207 | 1.7 | 3.5 | 0.00 | 0.00 | 0.00 | 58 | 1007.8 |
| 20260506223556 | 46 | 207 | 0.0 | 3.5 | 0.00 | 0.00 | 0.00 | 58 | 1007.7 |
| 20260506223357 | 46 | 207 | 0.9 | 3.5 | 0.00 | 0.00 | 0.00 | 60 | 1007.7 |
| 20260506223257 | 46 | 207 | 0.9 | 3.5 | 0.00 | 0.00 | 0.00 | 57 | 1007.7 |
| 20260506222958 | 46 | 191 | 3.5 | 3.5 | 0.00 | 0.00 | 0.00 | 58 | 1007.7 |
| 20260506222858 | 46 | 191 | 1.7 | 3.5 | 0.00 | 0.00 | 0.00 | 58 | 1007.8 |
| 20260506222657 | 46 | 191 | 1.7 | 4.3 | 0.00 | 0.00 | 0.00 | 58 | 1007.7 |
| 20260506222558 | 46 | 191 | 0.0 | 5.2 | 0.00 | 0.00 | 0.00 | 58 | 1007.7 |
| 20260506222459 | 46 | 191 | 3.5 | 5.2 | 0.00 | 0.00 | 0.00 | 57 | 1007.7 |
| 20260506222257 | 45 | 191 | 1.7 | 7.0 | 0.00 | 0.00 | 0.00 | 59 | 1007.7 |
| 20260506222157 | 45 | 191 | 0.0 | 7.0 | 0.00 | 0.00 | 0.00 | 59 | 1007.7 |
| 20260506221959 | 45 | 191 | 0.9 | 7.0 | 0.00 | 0.00 | 0.00 | 58 | 1007.7 |
| 20260506221856 | 45 | 191 | 4.3 | 7.0 | 0.00 | 0.00 | 0.00 | 57 | 1007.7 |
| 20260506221757 | 45 | 203 | 0.9 | 7.0 | 0.00 | 0.00 | 0.00 | 57 | 1007.7 |
| 20260506221659 | 45 | 221 | 2.6 | 7.0 | 0.00 | 0.00 | 0.00 | 58 | 1007.7 |
| 20260506221558 | 45 | 166 | 3.5 | 7.0 | 0.00 | 0.00 | 0.00 | 58 | 1007.7 |
| 20260506221500 | 45 | 154 | 5.2 | 5.2 | 0.00 | 0.00 | 0.00 | 60 | 1007.7 |
| 20260506221257 | 45 | 223 | 1.7 | 7.0 | 0.00 | 0.00 | 0.00 | 61 | 1007.6 |
| 20260506221156 | 45 | 288 | 0.9 | 7.0 | 0.00 | 0.00 | 0.00 | 60 | 1007.6 |
| 20260506221057 | 45 | 296 | 1.7 | 7.0 | 0.00 | 0.00 | 0.00 | 62 | 1007.7 |
| 20260506220959 | 45 | 301 | 3.5 | 7.0 | 0.00 | 0.00 | 0.00 | 64 | 1007.6 |
| 20260506220857 | 45 | 251 | 0.0 | 7.0 | 0.00 | 0.00 | 0.00 | 64 | 1007.7 |
| 20260506220757 | 45 | 251 | 1.7 | 7.0 | 0.00 | 0.00 | 0.00 | 64 | 1007.6 |
| 20260506220657 | 45 | 275 | 2.6 | 7.0 | 0.00 | 0.00 | 0.00 | 64 | 1007.6 |
| 20260506220557 | 45 | 321 | 1.7 | 7.0 | 0.00 | 0.00 | 0.00 | 63 | 1007.6 |
| 20260506220459 | 45 | 5 | 1.7 | 4.3 | 0.00 | 0.00 | 0.00 | 64 | 1007.6 |
| 20260506220258 | 45 | 355 | 2.6 | 4.3 | 0.00 | 0.00 | 0.00 | 64 | 1007.6 |
| 20260506220157 | 45 | 259 | 2.6 | 2.6 | 0.00 | 0.00 | 0.00 | 65 | 1007.6 |
| 20260506220058 | 45 | 259 | 0.9 | 3.5 | 0.00 | 0.00 | 0.00 | 65 | 1007.6 |
| 20260506215856 | 45 | 259 | 0.9 | 3.5 | 0.00 | 0.00 | 0.00 | 65 | 1007.6 |
| 20260506215657 | 45 | 259 | 0.0 | 3.5 | 0.00 | 0.00 | 0.00 | 65 | 1007.6 |
| 20260506215556 | 45 | 259 | 0.0 | 3.5 | 0.00 | 0.00 | 0.00 | 66 | 1007.6 |
| 20260506215458 | 45 | 259 | 0.9 | 4.3 | 0.00 | 0.00 | 0.00 | 64 | 1007.6 |
| 20260506215257 | 45 | 248 | 2.6 | 4.3 | 0.00 | 0.00 | 0.00 | 64 | 1007.6 |
| 20260506215158 | 45 | 240 | 0.0 | 4.3 | 0.00 | 0.00 | 0.00 | 64 | 1007.6 |
| 20260506215057 | 45 | 240 | 1.7 | 5.2 | 0.00 | 0.00 | 0.00 | 64 | 1007.6 |
| 20260506214958 | 45 | 240 | 0.9 | 5.2 | 0.00 | 0.00 | 0.00 | 64 | 1007.6 |
| 20260506214857 | 45 | 240 | 0.0 | 5.2 | 0.00 | 0.00 | 0.00 | 64 | 1007.6 |
| 20260506214757 | 45 | 240 | 1.7 | 5.2 | 0.00 | 0.00 | 0.00 | 63 | 1007.6 |
| 20260506214657 | 45 | 240 | 2.6 | 5.2 | 0.00 | 0.00 | 0.00 | 64 | 1007.5 |
| 20260506214557 | 45 | 237 | 3.5 | 5.2 | 0.00 | 0.00 | 0.00 | 64 | 1007.6 |
| 20260506214500 | 45 | 190 | 0.9 | 5.2 | 0.00 | 0.00 | 0.00 | 64 | 1007.5 |
| 20260506214358 | 45 | 190 | 0.9 | 5.2 | 0.00 | 0.00 | 0.00 | 63 | 1007.5 |
| 20260506214258 | 45 | 190 | 1.7 | 5.2 | 0.00 | 0.00 | 0.00 | 64 | 1007.5 |
| 20260506214157 | 45 | 324 | 0.9 | 5.2 | 0.00 | 0.00 | 0.00 | 65 | 1007.5 |
| 20260506213959 | 45 | 324 | 0.0 | 9.6 | 0.00 | 0.00 | 0.00 | 64 | 1007.5 |
| 20260506213857 | 45 | 324 | 0.9 | 9.6 | 0.00 | 0.00 | 0.00 | 64 | 1007.5 |
| 20260506213756 | 45 | 324 | 0.9 | 9.6 | 0.00 | 0.00 | 0.00 | 63 | 1007.5 |
| 20260506213657 | 45 | 324 | 2.6 | 9.6 | 0.00 | 0.00 | 0.00 | 64 | 1007.5 |
| 20260506213556 | 45 | 32 | 1.7 | 9.6 | 0.00 | 0.00 | 0.00 | 64 | 1007.5 |
| 20260506213459 | 45 | 52 | 3.5 | 9.6 | 0.00 | 0.00 | 0.00 | 64 | 1007.5 |
| 20260506213357 | 45 | 26 | 2.6 | 9.6 | 0.00 | 0.00 | 0.00 | 63 | 1007.4 |
| 20260506213257 | 45 | 52 | 1.7 | 9.6 | 0.00 | 0.00 | 0.00 | 63 | 1007.4 |
| 20260506213157 | 45 | 119 | 3.5 | 9.6 | 0.00 | 0.00 | 0.00 | 63 | 1007.4 |
| 20260506213057 | 44 | 58 | 6.1 | 9.6 | 0.00 | 0.00 | 0.00 | 64 | 1007.4 |
| 20260506212859 | 44 | 16 | 1.7 | 7.0 | 0.00 | 0.00 | 0.00 | 68 | 1007.4 |
| 20260506212757 | 44 | 9 | 3.5 | 7.0 | 0.00 | 0.00 | 0.00 | 67 | 1007.4 |
| 20260506212657 | 44 | 22 | 3.5 | 7.0 | 0.00 | 0.00 | 0.00 | 67 | 1007.4 |
| 20260506212459 | 44 | 314 | 0.9 | 7.0 | 0.00 | 0.00 | 0.00 | 71 | 1007.4 |
| 20260506212356 | 44 | 334 | 4.3 | 7.0 | 0.00 | 0.00 | 0.00 | 70 | 1007.4 |
| 20260506212256 | 44 | 336 | 5.2 | 7.0 | 0.00 | 0.00 | 0.00 | 70 | 1007.4 |
| 20260506212157 | 44 | 338 | 3.5 | 7.0 | 0.00 | 0.00 | 0.00 | 70 | 1007.4 |
| 20260506211959 | 44 | 351 | 1.7 | 7.0 | 0.00 | 0.00 | 0.00 | 69 | 1007.4 |
| 20260506211857 | 44 | 290 | 1.7 | 7.0 | 0.00 | 0.00 | 0.00 | 70 | 1007.4 |
| 20260506211757 | 44 | 294 | 1.7 | 7.0 | 0.00 | 0.00 | 0.00 | 69 | 1007.4 |
| 20260506211657 | 44 | 296 | 3.5 | 7.8 | 0.00 | 0.00 | 0.00 | 69 | 1007.4 |
| 20260506211559 | 44 | 301 | 4.3 | 7.8 | 0.00 | 0.00 | 0.00 | 69 | 1007.4 |
| 20260506211458 | 44 | 325 | 2.6 | 7.8 | 0.00 | 0.00 | 0.00 | 70 | 1007.4 |
| 20260506211357 | 44 | 280 | 3.5 | 7.8 | 0.00 | 0.00 | 0.00 | 70 | 1007.4 |
| 20260506211257 | 44 | 288 | 2.6 | 7.8 | 0.00 | 0.00 | 0.00 | 71 | 1007.4 |
| 20260506211157 | 44 | 288 | 6.1 | 7.8 | 0.00 | 0.00 | 0.00 | 70 | 1007.4 |
| 20260506211057 | 44 | 284 | 3.5 | 7.8 | 0.00 | 0.00 | 0.00 | 70 | 1007.4 |
| 20260506210757 | 44 | 344 | 0.9 | 7.8 | 0.00 | 0.00 | 0.00 | 71 | 1007.3 |
| 20260506210657 | 44 | 287 | 0.9 | 7.8 | 0.00 | 0.00 | 0.00 | 71 | 1007.3 |
| 20260506210557 | 44 | 289 | 1.7 | 7.8 | 0.00 | 0.00 | 0.00 | 71 | 1007.3 |
| 20260506210459 | 44 | 306 | 4.3 | 7.8 | 0.00 | 0.00 | 0.00 | 71 | 1007.3 |
| 20260506210357 | 44 | 282 | 2.6 | 7.8 | 0.00 | 0.00 | 0.00 | 73 | 1007.3 |
| 20260506210257 | 44 | 351 | 2.6 | 7.8 | 0.00 | 0.00 | 0.00 | 73 | 1007.3 |
| 20260506210158 | 44 | 314 | 2.6 | 7.8 | 0.00 | 0.00 | 0.00 | 72 | 1007.3 |
| 20260506210057 | 44 | 268 | 3.5 | 7.8 | 0.00 | 0.00 | 0.00 | 72 | 1007.2 |
| 20260506210000 | 44 | 340 | 2.6 | 7.8 | 0.00 | 0.00 | 0.00 | 72 | 1007.2 |
| 20260506205756 | 44 | 320 | 4.3 | 7.0 | 0.00 | 0.00 | 0.00 | 72 | 1007.2 |
| 20260506205657 | 44 | 325 | 4.3 | 7.0 | 0.00 | 0.00 | 0.00 | 72 | 1007.2 |
| 20260506205558 | 44 | 267 | 1.7 | 7.0 | 0.00 | 0.00 | 0.00 | 71 | 1007.3 |
| 20260506205459 | 44 | 290 | 4.3 | 7.0 | 0.00 | 0.00 | 0.00 | 71 | 1007.3 |
| 20260506205257 | 44 | 318 | 3.5 | 7.0 | 0.00 | 0.00 | 0.00 | 71 | 1007.2 |
| 20260506205157 | 44 | 336 | 2.6 | 7.0 | 0.00 | 0.00 | 0.00 | 70 | 1007.2 |
| 20260506204958 | 44 | 327 | 3.5 | 7.0 | 0.00 | 0.00 | 0.00 | 71 | 1007.2 |
| 20260506204856 | 44 | 292 | 2.6 | 7.0 | 0.00 | 0.00 | 0.00 | 71 | 1007.2 |
| 20260506204756 | 43 | 234 | 1.7 | 7.0 | 0.00 | 0.00 | 0.00 | 71 | 1007.2 |
| 20260506204657 | 43 | 233 | 2.6 | 7.0 | 0.00 | 0.00 | 0.00 | 70 | 1007.2 |
| 20260506204557 | 44 | 234 | 3.5 | 7.0 | 0.00 | 0.00 | 0.00 | 71 | 1007.2 |
| 20260506204500 | 44 | 232 | 5.2 | 7.0 | 0.00 | 0.00 | 0.00 | 71 | 1007.2 |
| 20260506204358 | 44 | 273 | 3.5 | 6.1 | 0.00 | 0.00 | 0.00 | 72 | 1007.1 |
| 20260506204256 | 43 | 273 | 0.9 | 7.0 | 0.00 | 0.00 | 0.00 | 71 | 1007.2 |
| 20260506204157 | 44 | 290 | 1.7 | 8.7 | 0.00 | 0.00 | 0.00 | 71 | 1007.2 |
| 20260506204056 | 43 | 283 | 3.5 | 8.7 | 0.00 | 0.00 | 0.00 | 71 | 1007.2 |
| 20260506204000 | 44 | 281 | 2.6 | 8.7 | 0.00 | 0.00 | 0.00 | 72 | 1007.1 |
| 20260506203858 | 43 | 286 | 1.7 | 8.7 | 0.00 | 0.00 | 0.00 | 73 | 1007.1 |
| 20260506203757 | 43 | 283 | 2.6 | 8.7 | 0.00 | 0.00 | 0.00 | 72 | 1007.1 |
| 20260506203657 | 43 | 333 | 2.6 | 8.7 | 0.00 | 0.00 | 0.00 | 72 | 1007.1 |
| 20260506203459 | 44 | 333 | 3.5 | 8.7 | 0.00 | 0.00 | 0.00 | 72 | 1007.1 |
| 20260506203358 | 44 | 315 | 7.0 | 8.7 | 0.00 | 0.00 | 0.00 | 72 | 1007.1 |
| 20260506203257 | 44 | 319 | 4.3 | 8.7 | 0.00 | 0.00 | 0.00 | 73 | 1007.1 |
| 20260506203158 | 44 | 302 | 1.7 | 8.7 | 0.00 | 0.00 | 0.00 | 73 | 1007.1 |
| 20260506203000 | 44 | 301 | 6.1 | 9.6 | 0.00 | 0.00 | 0.00 | 73 | 1007.0 |
| 20260506202858 | 44 | 275 | 3.5 | 9.6 | 0.00 | 0.00 | 0.00 | 73 | 1007.0 |
| 20260506202757 | 44 | 269 | 3.5 | 9.6 | 0.00 | 0.00 | 0.00 | 74 | 1007.0 |
| 20260506202657 | 44 | 298 | 4.3 | 9.6 | 0.00 | 0.00 | 0.00 | 74 | 1007.0 |
| 20260506202558 | 43 | 276 | 1.7 | 9.6 | 0.00 | 0.00 | 0.00 | 74 | 1007.0 |
| 20260506202459 | 43 | 273 | 2.6 | 9.6 | 0.00 | 0.00 | 0.00 | 74 | 1007.0 |
| 20260506202357 | 43 | 296 | 4.3 | 9.6 | 0.00 | 0.00 | 0.00 | 75 | 1007.0 |
| 20260506202257 | 43 | 290 | 4.3 | 9.6 | 0.00 | 0.00 | 0.00 | 75 | 1006.9 |
| 20260506202158 | 43 | 304 | 7.0 | 9.6 | 0.00 | 0.00 | 0.00 | 74 | 1006.9 |
| 20260506202057 | 43 | 243 | 7.8 | 9.6 | 0.00 | 0.00 | 0.00 | 74 | 1006.9 |
| 20260506201857 | 43 | 271 | 6.1 | 8.7 | 0.00 | 0.00 | 0.00 | 74 | 1006.9 |
| 20260506201757 | 43 | 253 | 8.7 | 8.7 | 0.00 | 0.00 | 0.00 | 74 | 1006.8 |
| 20260506201657 | 43 | 238 | 2.6 | 7.8 | 0.00 | 0.00 | 0.00 | 73 | 1006.9 |
| 20260506201557 | 43 | 238 | 3.5 | 7.8 | 0.00 | 0.00 | 0.00 | 74 | 1006.9 |
| 20260506201458 | 43 | 271 | 2.6 | 7.8 | 0.00 | 0.00 | 0.00 | 74 | 1006.9 |
| 20260506201356 | 43 | 274 | 5.2 | 7.8 | 0.00 | 0.00 | 0.00 | 74 | 1007.0 |
| 20260506201256 | 43 | 300 | 1.7 | 7.8 | 0.00 | 0.00 | 0.00 | 74 | 1006.9 |
| 20260506201057 | 43 | 282 | 5.2 | 7.8 | 0.00 | 0.00 | 0.00 | 74 | 1006.9 |
| 20260506200959 | 43 | 294 | 4.3 | 7.8 | 0.00 | 0.00 | 0.00 | 73 | 1006.9 |
| 20260506200858 | 43 | 282 | 7.8 | 7.8 | 0.00 | 0.00 | 0.00 | 73 | 1006.9 |
| 20260506200756 | 43 | 280 | 6.1 | 7.0 | 0.00 | 0.00 | 0.00 | 73 | 1006.8 |
| 20260506200557 | 44 | 355 | 5.2 | 7.0 | 0.00 | 0.00 | 0.00 | 72 | 1006.8 |
| 20260506200459 | 44 | 323 | 5.2 | 7.0 | 0.00 | 0.00 | 0.00 | 73 | 1006.8 |
| 20260506200357 | 44 | 329 | 3.5 | 7.0 | 0.00 | 0.00 | 0.00 | 73 | 1006.8 |
| 20260506200256 | 44 | 323 | 5.2 | 5.2 | 0.00 | 0.00 | 0.00 | 73 | 1006.8 |
| 20260506200157 | 44 | 300 | 2.6 | 5.2 | 0.00 | 0.00 | 0.00 | 73 | 1006.8 |
| 20260506200057 | 44 | 294 | 2.6 | 4.3 | 0.00 | 0.00 | 0.00 | 73 | 1006.7 |
| 20260506195959 | 44 | 311 | 2.6 | 4.3 | 0.00 | 0.00 | 0.00 | 72 | 1006.7 |
| 20260506195856 | 44 | 309 | 2.6 | 4.3 | 0.00 | 0.00 | 0.00 | 73 | 1006.8 |
| 20260506195657 | 43 | 259 | 0.9 | 7.0 | 0.00 | 0.00 | 0.00 | 72 | 1006.8 |
| 20260506195558 | 43 | 347 | 0.0 | 7.0 | 0.00 | 0.00 | 0.00 | 72 | 1006.8 |
| 20260506195458 | 43 | 347 | 0.0 | 7.0 | 0.00 | 0.00 | 0.00 | 72 | 1006.8 |
| 20260506195158 | 43 | 347 | 1.7 | 7.0 | 0.00 | 0.00 | 0.00 | 72 | 1006.7 |
| 20260506195057 | 43 | 350 | 1.7 | 7.0 | 0.00 | 0.00 | 0.00 | 73 | 1006.7 |
| 20260506195000 | 43 | 349 | 4.3 | 7.0 | 0.00 | 0.00 | 0.00 | 74 | 1006.8 |
| 20260506194857 | 43 | 298 | 2.6 | 7.0 | 0.00 | 0.00 | 0.00 | 73 | 1006.7 |
| 20260506194757 | 43 | 334 | 4.3 | 7.0 | 0.00 | 0.00 | 0.00 | 73 | 1006.7 |
| 20260506194500 | 43 | 32 | 3.5 | 7.0 | 0.00 | 0.00 | 0.00 | 74 | 1006.7 |
| 20260506194356 | 43 | 290 | 1.7 | 7.0 | 0.00 | 0.00 | 0.00 | 74 | 1006.7 |
| 20260506194258 | 43 | 290 | 2.6 | 7.0 | 0.00 | 0.00 | 0.00 | 75 | 1006.7 |
| 20260506194157 | 43 | 323 | 1.7 | 7.0 | 0.00 | 0.00 | 0.00 | 74 | 1006.7 |
| 20260506194056 | 43 | 340 | 7.0 | 7.0 | 0.00 | 0.00 | 0.00 | 74 | 1006.7 |
| 20260506193959 | 43 | 327 | 2.6 | 6.1 | 0.00 | 0.00 | 0.00 | 73 | 1006.7 |
| 20260506193758 | 42 | 350 | 0.9 | 5.2 | 0.00 | 0.00 | 0.00 | 73 | 1006.8 |
| 20260506193557 | 42 | 321 | 1.7 | 6.1 | 0.00 | 0.00 | 0.00 | 74 | 1006.7 |
| 20260506193458 | 42 | 290 | 1.7 | 6.1 | 0.00 | 0.00 | 0.00 | 74 | 1006.7 |
| 20260506193358 | 42 | 290 | 2.6 | 6.1 | 0.00 | 0.00 | 0.00 | 74 | 1006.7 |
| 20260506193157 | 42 | 287 | 0.9 | 6.1 | 0.00 | 0.00 | 0.00 | 73 | 1006.7 |
| 20260506193057 | 42 | 287 | 0.0 | 6.1 | 0.00 | 0.00 | 0.00 | 73 | 1006.7 |
| 20260506192958 | 42 | 287 | 1.7 | 6.1 | 0.00 | 0.00 | 0.00 | 73 | 1006.7 |
| 20260506192856 | 42 | 286 | 0.9 | 6.1 | 0.00 | 0.00 | 0.00 | 74 | 1006.7 |
| 20260506192757 | 42 | 288 | 2.6 | 6.1 | 0.00 | 0.00 | 0.00 | 75 | 1006.7 |
| 20260506192557 | 42 | 256 | 6.1 | 6.1 | 0.00 | 0.00 | 0.00 | 74 | 1006.7 |
| 20260506192459 | 42 | 279 | 2.6 | 4.3 | 0.00 | 0.00 | 0.00 | 74 | 1006.7 |
| 20260506192356 | 41 | 279 | 2.6 | 5.2 | 0.00 | 0.00 | 0.00 | 74 | 1006.7 |
| 20260506192256 | 41 | 278 | 0.9 | 4.3 | 0.00 | 0.00 | 0.00 | 75 | 1006.7 |
| 20260506192057 | 41 | 280 | 1.7 | 4.3 | 0.00 | 0.00 | 0.00 | 74 | 1006.7 |
| 20260506191958 | 41 | 280 | 0.9 | 4.3 | 0.00 | 0.00 | 0.00 | 74 | 1006.7 |
| 20260506191857 | 41 | 280 | 2.6 | 4.3 | 0.00 | 0.00 | 0.00 | 74 | 1006.7 |
| 20260506191757 | 41 | 281 | 0.9 | 4.3 | 0.00 | 0.00 | 0.00 | 74 | 1006.7 |
| 20260506191557 | 41 | 284 | 1.7 | 5.2 | 0.00 | 0.00 | 0.00 | 75 | 1006.7 |
| 20260506191458 | 41 | 284 | 1.7 | 5.2 | 0.00 | 0.00 | 0.00 | 75 | 1006.7 |
| 20260506191357 | 41 | 279 | 5.2 | 5.2 | 0.00 | 0.00 | 0.00 | 75 | 1006.7 |
| 20260506191257 | 41 | 287 | 0.0 | 5.2 | 0.00 | 0.00 | 0.00 | 75 | 1006.8 |
| 20260506191157 | 41 | 271 | 2.6 | 5.2 | 0.00 | 0.00 | 0.00 | 76 | 1006.7 |
| 20260506191057 | 41 | 279 | 3.5 | 5.2 | 0.00 | 0.00 | 0.00 | 76 | 1006.7 |
| 20260506190958 | 41 | 334 | 2.6 | 5.2 | 0.00 | 0.00 | 0.00 | 76 | 1006.7 |
| 20260506190657 | 41 | 275 | 1.7 | 6.1 | 0.00 | 0.00 | 0.00 | 76 | 1006.7 |
| 20260506190558 | 41 | 271 | 1.7 | 6.1 | 0.00 | 0.00 | 0.00 | 76 | 1006.7 |
| 20260506190458 | 41 | 271 | 2.6 | 6.1 | 0.00 | 0.00 | 0.00 | 76 | 1006.7 |
| 20260506190357 | 41 | 271 | 0.9 | 6.1 | 0.00 | 0.00 | 0.00 | 76 | 1006.7 |
| 20260506190258 | 41 | 271 | 3.5 | 6.1 | 0.00 | 0.00 | 0.00 | 78 | 1006.7 |
| 20260506190157 | 41 | 300 | 3.5 | 4.3 | 0.00 | 0.00 | 0.00 | 77 | 1006.7 |
| 20260506190057 | 41 | 5 | 3.5 | 4.3 | 0.00 | 0.00 | 0.00 | 77 | 1006.7 |
| 20260506185958 | 41 | 286 | 0.9 | 4.3 | 0.00 | 0.00 | 0.00 | 76 | 1006.7 |
| 20260506185858 | 41 | 286 | 3.5 | 5.2 | 0.00 | 0.00 | 0.00 | 77 | 1006.7 |
| 20260506185756 | 40 | 348 | 3.5 | 3.5 | 0.00 | 0.00 | 0.00 | 77 | 1006.7 |
| 20260506185657 | 40 | 5 | 0.0 | 3.5 | 0.00 | 0.00 | 0.00 | 77 | 1006.7 |
| 20260506185556 | 40 | 9 | 0.9 | 3.5 | 0.00 | 0.00 | 0.00 | 77 | 1006.7 |
| 20260506185356 | 40 | 9 | 0.0 | 5.2 | 0.00 | 0.00 | 0.00 | 77 | 1006.7 |
| 20260506185257 | 40 | 5 | 1.7 | 5.2 | 0.00 | 0.00 | 0.00 | 76 | 1006.7 |
| 20260506185156 | 40 | 9 | 1.7 | 5.2 | 0.00 | 0.00 | 0.00 | 77 | 1006.7 |
| 20260506185057 | 40 | 5 | 1.7 | 5.2 | 0.00 | 0.00 | 0.00 | 77 | 1006.6 |
| 20260506184959 | 40 | 9 | 3.5 | 5.2 | 0.00 | 0.00 | 0.00 | 77 | 1006.7 |
| 20260506184857 | 40 | 5 | 2.6 | 5.2 | 0.00 | 0.00 | 0.00 | 78 | 1006.6 |
| 20260506184757 | 40 | 5 | 1.7 | 5.2 | 0.00 | 0.00 | 0.00 | 78 | 1006.7 |
| 20260506184657 | 40 | 9 | 1.7 | 5.2 | 0.00 | 0.00 | 0.00 | 78 | 1006.7 |
| 20260506184557 | 40 | 348 | 4.3 | 5.2 | 0.00 | 0.00 | 0.00 | 77 | 1006.7 |
| 20260506184459 | 40 | 302 | 2.6 | 5.2 | 0.00 | 0.00 | 0.00 | 77 | 1006.7 |
| 20260506184358 | 40 | 301 | 0.9 | 5.2 | 0.00 | 0.00 | 0.00 | 77 | 1006.7 |
| 20260506184258 | 40 | 301 | 0.9 | 5.2 | 0.00 | 0.00 | 0.00 | 77 | 1006.7 |
| 20260506184158 | 40 | 302 | 2.6 | 5.2 | 0.00 | 0.00 | 0.00 | 77 | 1006.7 |
| 20260506184056 | 40 | 301 | 0.9 | 5.2 | 0.00 | 0.00 | 0.00 | 78 | 1006.7 |
| 20260506183857 | 40 | 301 | 2.6 | 6.1 | 0.00 | 0.00 | 0.00 | 77 | 1006.7 |
| 20260506183757 | 40 | 301 | 1.7 | 6.1 | 0.00 | 0.00 | 0.00 | 77 | 1006.6 |
| 20260506183656 | 40 | 304 | 3.5 | 6.1 | 0.00 | 0.00 | 0.00 | 78 | 1006.7 |
| 20260506183557 | 40 | 307 | 2.6 | 6.1 | 0.00 | 0.00 | 0.00 | 78 | 1006.7 |
| 20260506183458 | 40 | 306 | 1.7 | 6.1 | 0.00 | 0.00 | 0.00 | 78 | 1006.7 |
| 20260506183357 | 40 | 306 | 1.7 | 6.1 | 0.00 | 0.00 | 0.00 | 78 | 1006.6 |
| 20260506183257 | 40 | 306 | 1.7 | 6.1 | 0.00 | 0.00 | 0.00 | 78 | 1006.6 |
| 20260506183158 | 40 | 306 | 3.5 | 6.1 | 0.00 | 0.00 | 0.00 | 78 | 1006.6 |
| 20260506183056 | 40 | 265 | 2.6 | 6.1 | 0.00 | 0.00 | 0.00 | 78 | 1006.6 |
| 20260506182958 | 40 | 232 | 4.3 | 7.0 | 0.00 | 0.00 | 0.00 | 78 | 1006.6 |
| 20260506182859 | 40 | 269 | 3.5 | 7.0 | 0.00 | 0.00 | 0.00 | 78 | 1006.6 |
| 20260506182557 | 40 | 286 | 5.2 | 7.0 | 0.00 | 0.00 | 0.00 | 78 | 1006.6 |
| 20260506182458 | 40 | 287 | 3.5 | 4.3 | 0.00 | 0.00 | 0.00 | 78 | 1006.6 |
| 20260506182258 | 40 | 327 | 1.7 | 4.3 | 0.00 | 0.00 | 0.00 | 78 | 1006.6 |
| 20260506182157 | 40 | 327 | 2.6 | 4.3 | 0.00 | 0.00 | 0.00 | 78 | 1006.6 |
| 20260506181857 | 40 | 312 | 0.0 | 4.3 | 0.00 | 0.00 | 0.00 | 78 | 1006.6 |
| 20260506181757 | 40 | 312 | 0.9 | 4.3 | 0.00 | 0.00 | 0.00 | 78 | 1006.6 |
| 20260506181657 | 40 | 312 | 0.9 | 4.3 | 0.00 | 0.00 | 0.00 | 78 | 1006.6 |
| 20260506181557 | 40 | 312 | 1.7 | 4.3 | 0.00 | 0.00 | 0.00 | 78 | 1006.6 |
| 20260506181458 | 40 | 311 | 2.6 | 4.3 | 0.00 | 0.00 | 0.00 | 78 | 1006.6 |
| 20260506181157 | 40 | 275 | 5.2 | 5.2 | 0.00 | 0.00 | 0.00 | 79 | 1006.5 |
| 20260506181000 | 39 | 275 | 1.7 | 5.2 | 0.00 | 0.00 | 0.00 | 79 | 1006.5 |
| 20260506180858 | 39 | 297 | 2.6 | 5.2 | 0.00 | 0.00 | 0.00 | 79 | 1006.4 |
| 20260506180756 | 39 | 299 | 3.5 | 5.2 | 0.00 | 0.00 | 0.00 | 79 | 1006.4 |
| 20260506180657 | 39 | 302 | 0.9 | 5.2 | 0.00 | 0.00 | 0.00 | 79 | 1006.5 |
| 20260506180557 | 39 | 302 | 2.6 | 5.2 | 0.00 | 0.00 | 0.00 | 78 | 1006.4 |
| 20260506180458 | 39 | 302 | 2.6 | 5.2 | 0.00 | 0.00 | 0.00 | 78 | 1006.4 |
| 20260506180357 | 39 | 290 | 3.5 | 6.1 | 0.00 | 0.00 | 0.00 | 78 | 1006.4 |
| 20260506180256 | 39 | 291 | 6.1 | 6.1 | 0.00 | 0.00 | 0.00 | 79 | 1006.5 |
| 20260506180157 | 39 | 286 | 2.6 | 5.2 | 0.00 | 0.00 | 0.00 | 79 | 1006.4 |
| 20260506180057 | 39 | 294 | 3.5 | 4.3 | 0.00 | 0.00 | 0.00 | 79 | 1006.5 |
| 20260506175757 | 39 | 300 | 0.9 | 4.3 | 0.00 | 0.00 | 0.00 | 79 | 1006.4 |
| 20260506175658 | 39 | 306 | 1.7 | 4.3 | 0.00 | 0.00 | 0.00 | 79 | 1006.4 |
| 20260506175458 | 39 | 306 | 0.9 | 4.3 | 0.00 | 0.00 | 0.00 | 78 | 1006.4 |
| 20260506175256 | 39 | 306 | 2.6 | 4.3 | 0.00 | 0.00 | 0.00 | 79 | 1006.4 |
| 20260506175157 | 39 | 313 | 2.6 | 4.3 | 0.00 | 0.00 | 0.00 | 79 | 1006.4 |
| 20260506175057 | 39 | 298 | 1.7 | 4.3 | 0.00 | 0.00 | 0.00 | 79 | 1006.3 |
| 20260506174958 | 39 | 298 | 1.7 | 4.3 | 0.00 | 0.00 | 0.00 | 78 | 1006.3 |
| 20260506174858 | 39 | 298 | 3.5 | 4.3 | 0.00 | 0.00 | 0.00 | 78 | 1006.3 |
| 20260506174756 | 39 | 300 | 4.3 | 4.3 | 0.00 | 0.00 | 0.00 | 78 | 1006.3 |
| 20260506174656 | 39 | 319 | 3.5 | 4.3 | 0.00 | 0.00 | 0.00 | 78 | 1006.3 |
| 20260506174458 | 39 | 281 | 3.5 | 3.5 | 0.00 | 0.00 | 0.00 | 78 | 1006.3 |
| 20260506174258 | 39 | 309 | 0.0 | 3.5 | 0.00 | 0.00 | 0.00 | 78 | 1006.3 |
| 20260506174158 | 39 | 309 | 0.0 | 3.5 | 0.00 | 0.00 | 0.00 | 78 | 1006.4 |
| 20260506174057 | 39 | 309 | 1.7 | 3.5 | 0.00 | 0.00 | 0.00 | 78 | 1006.3 |
| 20260506173959 | 39 | 309 | 2.6 | 3.5 | 0.00 | 0.00 | 0.00 | 78 | 1006.3 |
| 20260506173757 | 39 | 320 | 0.0 | 2.6 | 0.00 | 0.00 | 0.00 | 78 | 1006.3 |
| 20260506173657 | 39 | 320 | 0.9 | 2.6 | 0.00 | 0.00 | 0.00 | 78 | 1006.3 |
| 20260506173557 | 39 | 320 | 0.9 | 2.6 | 0.00 | 0.00 | 0.00 | 78 | 1006.3 |
| 20260506173458 | 39 | 323 | 1.7 | 2.6 | 0.00 | 0.00 | 0.00 | 78 | 1006.3 |
| 20260506173357 | 39 | 328 | 1.7 | 2.6 | 0.00 | 0.00 | 0.00 | 79 | 1006.4 |
| 20260506173157 | 39 | 329 | 0.0 | 2.6 | 0.00 | 0.00 | 0.00 | 78 | 1006.3 |
| 20260506173057 | 39 | 329 | 0.0 | 2.6 | 0.00 | 0.00 | 0.00 | 78 | 1006.3 |
| 20260506172958 | 39 | 329 | 1.7 | 2.6 | 0.00 | 0.00 | 0.00 | 78 | 1006.3 |
| 20260506172857 | 39 | 329 | 2.6 | 2.6 | 0.00 | 0.00 | 0.00 | 78 | 1006.3 |
| 20260506172758 | 39 | 329 | 0.9 | 2.6 | 0.00 | 0.00 | 0.00 | 78 | 1006.3 |
| 20260506172657 | 39 | 329 | 0.0 | 2.6 | 0.00 | 0.00 | 0.00 | 77 | 1006.3 |
| 20260506172558 | 39 | 329 | 0.9 | 2.6 | 0.00 | 0.00 | 0.00 | 77 | 1006.3 |
| 20260506172458 | 39 | 338 | 1.7 | 2.6 | 0.00 | 0.00 | 0.00 | 77 | 1006.3 |
| 20260506172357 | 39 | 339 | 2.6 | 2.6 | 0.00 | 0.00 | 0.00 | 77 | 1006.2 |
| 20260506172256 | 39 | 345 | 0.0 | 2.6 | 0.00 | 0.00 | 0.00 | 78 | 1006.2 |
| 20260506172156 | 39 | 346 | 0.9 | 2.6 | 0.00 | 0.00 | 0.00 | 78 | 1006.3 |
| 20260506172057 | 39 | 346 | 0.0 | 2.6 | 0.00 | 0.00 | 0.00 | 78 | 1006.2 |
| 20260506172000 | 39 | 346 | 0.0 | 3.5 | 0.00 | 0.00 | 0.00 | 78 | 1006.2 |
| 20260506171856 | 39 | 346 | 0.0 | 3.5 | 0.00 | 0.00 | 0.00 | 78 | 1006.2 |
| 20260506171757 | 39 | 346 | 0.9 | 3.5 | 0.00 | 0.00 | 0.00 | 77 | 1006.1 |
| 20260506171657 | 39 | 345 | 2.6 | 3.5 | 0.00 | 0.00 | 0.00 | 77 | 1006.2 |
| 20260506171558 | 39 | 355 | 1.7 | 3.5 | 0.00 | 0.00 | 0.00 | 78 | 1006.1 |
| 20260506171357 | 39 | 355 | 1.7 | 3.5 | 0.00 | 0.00 | 0.00 | 77 | 1006.1 |
| 20260506171157 | 39 | 355 | 1.7 | 3.5 | 0.00 | 0.00 | 0.00 | 78 | 1006.1 |
| 20260506171056 | 39 | 10 | 1.7 | 1.7 | 0.00 | 0.00 | 0.00 | 78 | 1006.1 |
| 20260506170959 | 39 | 10 | 0.9 | 1.7 | 0.00 | 0.00 | 0.00 | 78 | 1006.1 |
| 20260506170856 | 39 | 10 | 0.9 | 1.7 | 0.00 | 0.00 | 0.00 | 78 | 1006.1 |
| 20260506170757 | 39 | 10 | 0.9 | 1.7 | 0.00 | 0.00 | 0.00 | 78 | 1006.1 |
| 20260506170658 | 39 | 10 | 0.9 | 1.7 | 0.00 | 0.00 | 0.00 | 78 | 1006.1 |
| 20260506170458 | 39 | 10 | 0.0 | 1.7 | 0.00 | 0.00 | 0.00 | 78 | 1006.1 |
| 20260506170357 | 39 | 10 | 0.0 | 1.7 | 0.00 | 0.00 | 0.00 | 78 | 1006.1 |
| 20260506170300 | 39 | 10 | 0.0 | 1.7 | 0.00 | 0.00 | 0.00 | 78 | 1006.1 |
| 20260506170157 | 38 | 10 | 1.7 | 1.7 | 0.00 | 0.00 | 0.00 | 78 | 1006.1 |
| 20260506170057 | 39 | 10 | 0.0 | 1.7 | 0.00 | 0.00 | 0.00 | 78 | 1006.1 |
| 20260506170000 | 39 | 10 | 0.0 | 1.7 | 0.00 | 0.00 | 0.00 | 78 | 1006.1 |
| 20260506165858 | 38 | 10 | 0.0 | 1.7 | 0.00 | 0.00 | 0.00 | 78 | 1006.1 |
| 20260506165757 | 38 | 10 | 0.9 | 1.7 | 0.00 | 0.00 | 0.00 | 78 | 1006.1 |
| 20260506165657 | 38 | 10 | 0.0 | 1.7 | 0.00 | 0.00 | 0.00 | 78 | 1006.1 |
| 20260506165556 | 38 | 10 | 0.9 | 2.6 | 0.00 | 0.00 | 0.00 | 78 | 1006.1 |
| 20260506165458 | 38 | 10 | 1.7 | 2.6 | 0.00 | 0.00 | 0.00 | 78 | 1006.0 |
| 20260506165357 | 38 | 11 | 0.9 | 2.6 | 0.00 | 0.00 | 0.00 | 78 | 1006.0 |
| 20260506165256 | 38 | 10 | 0.0 | 2.6 | 0.00 | 0.00 | 0.00 | 78 | 1006.1 |
| 20260506165157 | 38 | 10 | 0.0 | 2.6 | 0.00 | 0.00 | 0.00 | 78 | 1006.1 |
| 20260506165056 | 38 | 10 | 0.0 | 2.6 | 0.00 | 0.00 | 0.00 | 78 | 1006.0 |
| 20260506164959 | 38 | 10 | 0.9 | 2.6 | 0.00 | 0.00 | 0.00 | 78 | 1006.0 |
| 20260506164856 | 38 | 10 | 0.9 | 2.6 | 0.00 | 0.00 | 0.00 | 78 | 1006.0 |
| 20260506164757 | 39 | 10 | 0.9 | 2.6 | 0.00 | 0.00 | 0.00 | 78 | 1006.0 |
| 20260506164656 | 39 | 10 | 0.9 | 1.7 | 0.00 | 0.00 | 0.00 | 78 | 1006.0 |
| 20260506164557 | 38 | 10 | 0.9 | 1.7 | 0.00 | 0.00 | 0.00 | 78 | 1006.0 |
| 20260506164458 | 39 | 10 | 0.9 | 1.7 | 0.00 | 0.00 | 0.00 | 78 | 1006.0 |
| 20260506164358 | 39 | 10 | 0.9 | 1.7 | 0.00 | 0.00 | 0.00 | 78 | 1006.0 |
| 20260506164156 | 38 | 10 | 0.0 | 1.7 | 0.00 | 0.00 | 0.00 | 78 | 1006.0 |
| 20260506164057 | 39 | 10 | 0.9 | 1.7 | 0.00 | 0.00 | 0.00 | 78 | 1005.9 |
| 20260506163958 | 38 | 10 | 1.7 | 2.6 | 0.00 | 0.00 | 0.00 | 78 | 1005.9 |
| 20260506163858 | 39 | 10 | 0.0 | 2.6 | 0.00 | 0.00 | 0.00 | 78 | 1005.9 |
| 20260506163758 | 38 | 10 | 0.9 | 2.6 | 0.00 | 0.00 | 0.00 | 78 | 1005.9 |
| 20260506163657 | 38 | 10 | 0.0 | 2.6 | 0.00 | 0.00 | 0.00 | 78 | 1005.9 |
| 20260506163557 | 38 | 10 | 0.9 | 2.6 | 0.00 | 0.00 | 0.00 | 78 | 1005.9 |
| 20260506163356 | 38 | 10 | 0.9 | 2.6 | 0.00 | 0.00 | 0.00 | 78 | 1005.9 |
| 20260506163256 | 38 | 10 | 0.9 | 2.6 | 0.00 | 0.00 | 0.00 | 78 | 1005.9 |
| 20260506163157 | 38 | 10 | 1.7 | 2.6 | 0.00 | 0.00 | 0.00 | 79 | 1005.8 |
| 20260506163058 | 38 | 10 | 0.9 | 1.7 | 0.00 | 0.00 | 0.00 | 78 | 1005.8 |
| 20260506162959 | 38 | 10 | 0.9 | 1.7 | 0.00 | 0.00 | 0.00 | 78 | 1005.8 |
| 20260506162857 | 38 | 10 | 0.0 | 1.7 | 0.00 | 0.00 | 0.00 | 78 | 1005.8 |
| 20260506162757 | 38 | 10 | 0.9 | 1.7 | 0.00 | 0.00 | 0.00 | 78 | 1005.8 |
| 20260506162657 | 38 | 11 | 0.9 | 1.7 | 0.00 | 0.00 | 0.00 | 78 | 1005.7 |
| 20260506162556 | 38 | 11 | 0.9 | 1.7 | 0.00 | 0.00 | 0.00 | 78 | 1005.7 |
| 20260506162357 | 38 | 11 | 0.0 | 1.7 | 0.00 | 0.00 | 0.00 | 78 | 1005.7 |
| 20260506162257 | 38 | 11 | 0.9 | 1.7 | 0.00 | 0.00 | 0.00 | 78 | 1005.7 |
| 20260506162156 | 38 | 11 | 0.9 | 1.7 | 0.00 | 0.00 | 0.00 | 79 | 1005.7 |
| 20260506162057 | 38 | 11 | 0.9 | 0.9 | 0.00 | 0.00 | 0.00 | 79 | 1005.7 |
| 20260506161959 | 38 | 11 | 0.0 | 0.9 | 0.00 | 0.00 | 0.00 | 80 | 1005.7 |
| 20260506161856 | 38 | 11 | 0.0 | 0.9 | 0.00 | 0.00 | 0.00 | 80 | 1005.7 |
| 20260506161757 | 38 | 11 | 0.0 | 0.9 | 0.00 | 0.00 | 0.00 | 80 | 1005.7 |
| 20260506161657 | 38 | 11 | 0.9 | 0.9 | 0.00 | 0.00 | 0.00 | 80 | 1005.7 |
| 20260506161556 | 38 | 11 | 0.9 | 0.9 | 0.00 | 0.00 | 0.00 | 80 | 1005.7 |
| 20260506161459 | 37 | 11 | 0.0 | 0.9 | 0.00 | 0.00 | 0.00 | 80 | 1005.7 |
| 20260506161357 | 37 | 11 | 0.0 | 0.9 | 0.00 | 0.00 | 0.00 | 80 | 1005.7 |
| 20260506161257 | 37 | 10 | 0.0 | 0.9 | 0.00 | 0.00 | 0.00 | 80 | 1005.7 |
| 20260506161157 | 37 | 10 | 0.0 | 0.9 | 0.00 | 0.00 | 0.00 | 80 | 1005.7 |
| 20260506161056 | 37 | 10 | 0.9 | 1.7 | 0.00 | 0.00 | 0.00 | 80 | 1005.7 |
| 20260506160957 | 37 | 11 | 0.9 | 1.7 | 0.00 | 0.00 | 0.00 | 80 | 1005.7 |
| 20260506160857 | 37 | 10 | 0.0 | 1.7 | 0.00 | 0.00 | 0.00 | 80 | 1005.7 |
| 20260506160758 | 37 | 11 | 0.0 | 1.7 | 0.00 | 0.00 | 0.00 | 80 | 1005.7 |
| 20260506160556 | 37 | 11 | 0.0 | 1.7 | 0.00 | 0.00 | 0.00 | 80 | 1005.6 |
| 20260506160357 | 37 | 11 | 0.0 | 1.7 | 0.00 | 0.00 | 0.00 | 80 | 1005.7 |
| 20260506160257 | 37 | 11 | 0.0 | 1.7 | 0.00 | 0.00 | 0.00 | 80 | 1005.6 |
| 20260506160056 | 37 | 10 | 0.0 | 1.7 | 0.00 | 0.00 | 0.00 | 80 | 1005.6 |
| 20260506160000 | 37 | 10 | 0.0 | 1.7 | 0.00 | 0.00 | 0.00 | 80 | 1005.6 |
| 20260506155857 | 37 | 10 | 0.0 | 1.7 | 0.00 | 0.00 | 0.00 | 80 | 1005.7 |
| 20260506155756 | 37 | 10 | 0.0 | 1.7 | 0.00 | 0.00 | 0.00 | 80 | 1005.6 |
| 20260506155656 | 37 | 10 | 0.0 | 1.7 | 0.00 | 0.00 | 0.00 | 80 | 1005.7 |
| 20260506155558 | 37 | 10 | 0.9 | 1.7 | 0.00 | 0.00 | 0.00 | 80 | 1005.6 |
| 20260506155459 | 37 | 10 | 0.0 | 1.7 | 0.00 | 0.00 | 0.00 | 80 | 1005.6 |
| 20260506155356 | 37 | 10 | 1.7 | 1.7 | 0.00 | 0.00 | 0.00 | 80 | 1005.6 |
| 20260506155158 | 37 | 10 | 0.0 | 0.9 | 0.00 | 0.00 | 0.00 | 80 | 1005.6 |
| 20260506154959 | 37 | 10 | 0.0 | 0.9 | 0.00 | 0.00 | 0.00 | 80 | 1005.6 |
| 20260506154858 | 37 | 10 | 0.0 | 0.9 | 0.00 | 0.00 | 0.00 | 80 | 1005.6 |
| 20260506154756 | 37 | 10 | 0.0 | 0.9 | 0.00 | 0.00 | 0.00 | 80 | 1005.6 |
| 20260506154657 | 37 | 10 | 0.0 | 0.9 | 0.00 | 0.00 | 0.00 | 80 | 1005.6 |
| 20260506154557 | 37 | 10 | 0.0 | 0.9 | 0.00 | 0.00 | 0.00 | 80 | 1005.6 |
| 20260506154459 | 37 | 10 | 0.0 | 0.9 | 0.00 | 0.00 | 0.00 | 80 | 1005.6 |
| 20260506154357 | 37 | 10 | 0.0 | 1.7 | 0.00 | 0.00 | 0.00 | 80 | 1005.6 |
| 20260506154257 | 37 | 10 | 0.0 | 1.7 | 0.00 | 0.00 | 0.00 | 80 | 1005.6 |
| 20260506154157 | 37 | 10 | 0.9 | 1.7 | 0.00 | 0.00 | 0.00 | 80 | 1005.6 |
| 20260506153957 | 37 | 10 | 0.0 | 1.7 | 0.00 | 0.00 | 0.00 | 80 | 1005.6 |
| 20260506153856 | 37 | 10 | 0.0 | 1.7 | 0.00 | 0.00 | 0.00 | 80 | 1005.6 |
| 20260506153657 | 37 | 10 | 0.0 | 1.7 | 0.00 | 0.00 | 0.00 | 80 | 1005.6 |
| 20260506153557 | 37 | 10 | 1.7 | 2.6 | 0.00 | 0.00 | 0.00 | 80 | 1005.6 |
| 20260506153459 | 37 | 10 | 0.0 | 2.6 | 0.00 | 0.00 | 0.00 | 80 | 1005.5 |
| 20260506153256 | 37 | 10 | 0.9 | 2.6 | 0.00 | 0.00 | 0.00 | 80 | 1005.5 |
| 20260506153156 | 37 | 10 | 0.9 | 3.5 | 0.00 | 0.00 | 0.00 | 80 | 1005.5 |
| 20260506152958 | 37 | 10 | 0.9 | 3.5 | 0.00 | 0.00 | 0.00 | 81 | 1005.6 |
| 20260506152856 | 37 | 10 | 0.9 | 3.5 | 0.00 | 0.00 | 0.00 | 83 | 1005.6 |
| 20260506152758 | 37 | 10 | 0.9 | 3.5 | 0.00 | 0.00 | 0.00 | 80 | 1005.6 |
| 20260506152656 | 37 | 10 | 1.7 | 4.3 | 0.00 | 0.00 | 0.00 | 79 | 1005.6 |
| 20260506152557 | 37 | 10 | 1.7 | 4.3 | 0.00 | 0.00 | 0.00 | 80 | 1005.6 |
| 20260506152458 | 37 | 10 | 1.7 | 4.3 | 0.00 | 0.00 | 0.00 | 80 | 1005.6 |
| 20260506152357 | 37 | 11 | 0.9 | 4.3 | 0.00 | 0.00 | 0.00 | 82 | 1005.5 |
| 20260506152257 | 37 | 11 | 3.5 | 4.3 | 0.00 | 0.00 | 0.00 | 81 | 1005.5 |
| 20260506152156 | 37 | 10 | 1.7 | 4.3 | 0.00 | 0.00 | 0.00 | 80 | 1005.5 |
| 20260506152056 | 37 | 10 | 2.6 | 4.3 | 0.00 | 0.00 | 0.00 | 80 | 1005.5 |
| 20260506151959 | 37 | 10 | 3.5 | 4.3 | 0.00 | 0.00 | 0.00 | 79 | 1005.5 |
| 20260506151857 | 37 | 11 | 3.5 | 4.3 | 0.00 | 0.00 | 0.00 | 79 | 1005.6 |
| 20260506151757 | 37 | 15 | 2.6 | 4.3 | 0.00 | 0.00 | 0.00 | 79 | 1005.5 |
| 20260506151656 | 37 | 360 | 2.6 | 4.3 | 0.00 | 0.00 | 0.00 | 79 | 1005.5 |
| 20260506151556 | 37 | 9 | 2.6 | 4.3 | 0.00 | 0.00 | 0.00 | 79 | 1005.5 |
| 20260506151458 | 37 | 350 | 2.6 | 4.3 | 0.00 | 0.00 | 0.00 | 78 | 1005.5 |
| 20260506151357 | 37 | 339 | 3.5 | 3.5 | 0.00 | 0.00 | 0.00 | 78 | 1005.5 |
| 20260506151257 | 37 | 109 | 1.7 | 2.6 | 0.00 | 0.00 | 0.00 | 78 | 1005.5 |
| 20260506151156 | 37 | 133 | 1.7 | 2.6 | 0.00 | 0.00 | 0.00 | 78 | 1005.5 |
| 20260506151058 | 37 | 142 | 0.9 | 2.6 | 0.00 | 0.00 | 0.00 | 77 | 1005.5 |
| 20260506150959 | 37 | 142 | 1.7 | 1.7 | 0.00 | 0.00 | 0.00 | 76 | 1005.5 |
| 20260506150756 | 37 | 142 | 0.9 | 1.7 | 0.00 | 0.00 | 0.00 | 76 | 1005.5 |
| 20260506150656 | 37 | 142 | 0.9 | 1.7 | 0.00 | 0.00 | 0.00 | 76 | 1005.5 |
| 20260506150558 | 37 | 142 | 0.9 | 0.9 | 0.00 | 0.00 | 0.00 | 77 | 1005.5 |
| 20260506150500 | 37 | 142 | 0.0 | 1.7 | 0.00 | 0.00 | 0.00 | 77 | 1005.5 |
| 20260506150358 | 37 | 142 | 0.0 | 1.7 | 0.00 | 0.00 | 0.00 | 77 | 1005.4 |
| 20260506150304 | 37 | 142 | 0.9 | 1.7 | 0.00 | 0.00 | 0.00 | 76 | 1005.4 |
| 20260506150158 | 37 | 142 | 0.9 | 1.7 | 0.00 | 0.00 | 0.00 | 77 | 1005.4 |
| 20260506150056 | 37 | 142 | 0.0 | 1.7 | 0.00 | 0.00 | 0.00 | 77 | 1005.4 |
| 20260506145958 | 37 | 142 | 0.0 | 1.7 | 0.00 | 0.00 | 0.00 | 76 | 1005.4 |
| 20260506145657 | 37 | 142 | 0.9 | 1.7 | 0.00 | 0.00 | 0.00 | 75 | 1005.4 |
| 20260506145556 | 38 | 142 | 1.7 | 1.7 | 0.00 | 0.00 | 0.00 | 75 | 1005.4 |
| 20260506145459 | 38 | 142 | 0.9 | 0.9 | 0.00 | 0.00 | 0.00 | 75 | 1005.3 |
| 20260506145358 | 38 | 142 | 0.0 | 0.9 | 0.00 | 0.00 | 0.00 | 75 | 1005.3 |
| 20260506145257 | 38 | 142 | 0.0 | 1.7 | 0.00 | 0.00 | 0.00 | 75 | 1005.3 |
| 20260506145157 | 38 | 142 | 0.0 | 1.7 | 0.00 | 0.00 | 0.00 | 75 | 1005.3 |
| 20260506145056 | 38 | 142 | 0.0 | 1.7 | 0.00 | 0.00 | 0.00 | 75 | 1005.3 |
| 20260506144959 | 38 | 142 | 0.0 | 2.6 | 0.00 | 0.00 | 0.00 | 75 | 1005.3 |
| 20260506144857 | 38 | 142 | 0.0 | 2.6 | 0.00 | 0.00 | 0.00 | 75 | 1005.3 |
| 20260506144658 | 38 | 142 | 0.9 | 2.6 | 0.00 | 0.00 | 0.00 | 75 | 1005.3 |
| 20260506144556 | 38 | 142 | 0.0 | 2.6 | 0.00 | 0.00 | 0.00 | 75 | 1005.3 |
| 20260506144458 | 38 | 142 | 0.9 | 2.6 | 0.00 | 0.00 | 0.00 | 75 | 1005.3 |
| 20260506144357 | 38 | 142 | 0.9 | 2.6 | 0.00 | 0.00 | 0.00 | 75 | 1005.3 |
| 20260506144257 | 38 | 142 | 0.9 | 2.6 | 0.00 | 0.00 | 0.00 | 75 | 1005.3 |
| 20260506144156 | 38 | 142 | 0.9 | 2.6 | 0.00 | 0.00 | 0.00 | 76 | 1005.3 |
| 20260506144056 | 37 | 142 | 1.7 | 2.6 | 0.00 | 0.00 | 0.00 | 77 | 1005.4 |
| 20260506143959 | 37 | 142 | 1.7 | 1.7 | 0.00 | 0.00 | 0.00 | 76 | 1005.3 |
| 20260506143857 | 37 | 142 | 1.7 | 1.7 | 0.00 | 0.00 | 0.00 | 76 | 1005.3 |
| 20260506143756 | 37 | 142 | 0.0 | 0.9 | 0.00 | 0.00 | 0.00 | 75 | 1005.3 |
| 20260506143656 | 37 | 142 | 0.9 | 0.9 | 0.00 | 0.00 | 0.00 | 75 | 1005.4 |
| 20260506143556 | 37 | 142 | 0.9 | 0.9 | 0.00 | 0.00 | 0.00 | 75 | 1005.3 |
| 20260506143458 | 37 | 142 | 0.0 | 0.9 | 0.00 | 0.00 | 0.00 | 75 | 1005.3 |
| 20260506143357 | 37 | 142 | 0.0 | 0.9 | 0.00 | 0.00 | 0.00 | 75 | 1005.4 |
| 20260506143257 | 37 | 142 | 0.0 | 0.9 | 0.00 | 0.00 | 0.00 | 75 | 1005.3 |
| 20260506143156 | 37 | 142 | 0.0 | 0.9 | 0.00 | 0.00 | 0.00 | 75 | 1005.3 |
| 20260506143058 | 37 | 142 | 0.0 | 0.9 | 0.00 | 0.00 | 0.00 | 75 | 1005.3 |
| 20260506142958 | 37 | 142 | 0.0 | 0.9 | 0.00 | 0.00 | 0.00 | 75 | 1005.3 |
| 20260506142858 | 37 | 142 | 0.9 | 569.2 | 1.78 | 0.00 | 0.00 | 75 | |
| 20260506142757 | 37 | 142 | 0.9 | 0.9 | 0.00 | 0.00 | 0.00 | 75 | 1005.3 |
| 20260506142656 | 37 | 142 | 0.9 | 0.9 | 0.00 | 0.00 | 0.00 | 75 | 1005.3 |
| 20260506142557 | 37 | 142 | 0.0 | 0.9 | 0.00 | 0.00 | 0.00 | 75 | 1005.3 |
| 20260506142458 | 37 | 142 | 0.0 | 1.7 | 0.00 | 0.00 | 0.00 | 75 | 1005.3 |
| 20260506142358 | 37 | 142 | 0.0 | 1.7 | 0.00 | 0.00 | 0.00 | 75 | 1005.3 |
| 20260506142257 | 37 | 142 | 0.9 | 1.7 | 0.00 | 0.00 | 0.00 | 74 | 1005.3 |
| 20260506142157 | 37 | 142 | 0.0 | 2.6 | 0.00 | 0.00 | 0.00 | 74 | 1005.3 |
| 20260506142057 | 37 | 142 | 0.0 | 2.6 | 0.00 | 0.00 | 0.00 | 74 | 1005.4 |
| 20260506141958 | 37 | 142 | 0.0 | 2.6 | 0.00 | 0.00 | 0.00 | 74 | 1005.4 |
| 20260506141856 | 37 | 142 | 0.0 | 2.6 | 0.00 | 0.00 | 0.00 | 74 | 1005.3 |
| 20260506141757 | 37 | 142 | 0.9 | 2.6 | 0.00 | 0.00 | 0.00 | 74 | 1005.3 |
| 20260506141657 | 37 | 142 | 0.9 | 2.6 | 0.00 | 0.00 | 0.00 | 74 | 1005.3 |
| 20260506141556 | 37 | 142 | 0.9 | 2.6 | 0.00 | 0.00 | 0.00 | 74 | 1005.3 |
| 20260506141356 | 37 | 142 | 0.9 | 3.5 | 0.00 | 0.00 | 0.00 | 74 | 1005.3 |
| 20260506141256 | 37 | 142 | 1.7 | 3.5 | 0.00 | 0.00 | 0.00 | 74 | 1005.4 |
| 20260506141156 | 37 | 142 | 0.9 | 3.5 | 0.00 | 0.00 | 0.00 | 74 | 1005.3 |
| 20260506141056 | 37 | 142 | 1.7 | 3.5 | 0.00 | 0.00 | 0.00 | 74 | 1005.3 |
| 20260506140959 | 37 | 142 | 1.7 | 3.5 | 0.00 | 0.00 | 0.00 | 74 | 1005.3 |
| 20260506140858 | 37 | 142 | 0.9 | 3.5 | 0.00 | 0.00 | 0.00 | 74 | 1005.3 |
| 20260506140757 | 37 | 142 | 0.9 | 3.5 | 0.00 | 0.00 | 0.00 | 74 | 1005.3 |
| 20260506140656 | 37 | 142 | 1.7 | 3.5 | 0.00 | 0.00 | 0.00 | 74 | 1005.3 |
| 20260506140556 | 37 | 142 | 2.6 | 3.5 | 0.00 | 0.00 | 0.00 | 74 | 1005.3 |
| 20260506140356 | 37 | 142 | 3.5 | 3.5 | 0.00 | 0.00 | 0.00 | 74 | 1005.3 |
| 20260506140257 | 37 | 142 | 2.6 | 3.5 | 0.00 | 0.00 | 0.00 | 74 | 1005.3 |
| 20260506140157 | 37 | 142 | 2.6 | 3.5 | 0.00 | 0.00 | 0.00 | 74 | 1005.2 |
| 20260506140058 | 37 | 142 | 1.7 | 3.5 | 0.00 | 0.00 | 0.00 | 74 | 1005.2 |
| 20260506135958 | 37 | 142 | 3.5 | 3.5 | 0.00 | 0.00 | 0.00 | 74 | 1005.2 |
| 20260506135556 | 37 | 142 | 2.6 | 3.5 | 0.00 | 0.00 | 0.00 | 74 | 1005.2 |
| 20260506135458 | 37 | 142 | 1.7 | 2.6 | 0.00 | 0.00 | 0.00 | 74 | 1005.2 |
| 20260506135357 | 37 | 143 | 2.6 | 2.6 | 0.00 | 0.00 | 0.00 | 74 | 1005.2 |
| 20260506135257 | 37 | 143 | 1.7 | 2.6 | 0.00 | 0.00 | 0.00 | 74 | 1005.2 |
| 20260506135056 | 37 | 143 | 1.7 | 2.6 | 0.00 | 0.00 | 0.00 | 74 | 1005.2 |
| 20260506135000 | 37 | 143 | 1.7 | 2.6 | 0.00 | 0.00 | 0.00 | 74 | 1005.3 |
| 20260506134856 | 37 | 143 | 0.9 | 2.6 | 0.00 | 0.00 | 0.00 | 74 | 1005.2 |
| 20260506134757 | 37 | 143 | 0.9 | 2.6 | 0.00 | 0.00 | 0.00 | 74 | 1005.2 |
| 20260506134657 | 37 | 143 | 1.7 | 2.6 | 0.00 | 0.00 | 0.00 | 74 | 1005.2 |
| 20260506134557 | 37 | 143 | 1.7 | 2.6 | 0.00 | 0.00 | 0.00 | 74 | 1005.2 |
| 20260506134458 | 37 | 143 | 1.7 | 2.6 | 0.00 | 0.00 | 0.00 | 74 | 1005.2 |
| 20260506134356 | 37 | 143 | 1.7 | 2.6 | 0.00 | 0.00 | 0.00 | 74 | 1005.2 |
| 20260506134156 | 38 | 142 | 0.9 | 3.5 | 0.00 | 0.00 | 0.00 | 74 | 1005.2 |
| 20260506134057 | 38 | 142 | 0.0 | 3.5 | 0.00 | 0.00 | 0.00 | 74 | 1005.2 |
| 20260506133959 | 38 | 142 | 0.9 | 3.5 | 0.00 | 0.00 | 0.00 | 74 | 1005.2 |
| 20260506133857 | 38 | 142 | 0.9 | 3.5 | 0.00 | 0.00 | 0.00 | 74 | 1005.2 |
| 20260506133756 | 38 | 142 | 1.7 | 3.5 | 0.00 | 0.00 | 0.00 | 74 | 1005.2 |
| 20260506133658 | 37 | 142 | 0.9 | 3.5 | 0.00 | 0.00 | 0.00 | 74 | 1005.2 |
| 20260506133458 | 37 | 142 | 1.7 | 3.5 | 0.00 | 0.00 | 0.00 | 74 | 1005.2 |
| 20260506133357 | 37 | 142 | 0.9 | 3.5 | 0.00 | 0.00 | 0.00 | 74 | 1005.2 |
| 20260506133256 | 37 | 142 | 0.9 | 3.5 | 0.00 | 0.00 | 0.00 | 74 | 1005.2 |
| 20260506133157 | 37 | 142 | 2.6 | 3.5 | 0.00 | 0.00 | 0.00 | 74 | 1005.2 |
| 20260506132856 | 38 | 142 | 1.7 | 2.6 | 0.00 | 0.00 | 0.00 | 74 | 1005.2 |
| 20260506132757 | 38 | 142 | 1.7 | 2.6 | 0.00 | 0.00 | 0.00 | 73 | 1005.2 |
| 20260506132658 | 38 | 142 | 0.9 | 2.6 | 0.00 | 0.00 | 0.00 | 73 | 1005.2 |
| 20260506132557 | 38 | 142 | 0.9 | 2.6 | 0.00 | 0.00 | 0.00 | 74 | 1005.2 |
| 20260506132458 | 38 | 142 | 0.0 | 2.6 | 0.00 | 0.00 | 0.00 | 73 | 1005.2 |
| 20260506132358 | 38 | 142 | 0.0 | 2.6 | 0.00 | 0.00 | 0.00 | 73 | 1005.2 |
| 20260506132256 | 38 | 142 | 0.0 | 2.6 | 0.00 | 0.00 | 0.00 | 73 | 1005.1 |
| 20260506132156 | 38 | 142 | 0.9 | 2.6 | 0.00 | 0.00 | 0.00 | 73 | 1005.2 |
| 20260506132057 | 37 | 142 | 0.9 | 2.6 | 0.00 | 0.00 | 0.00 | 73 | 1005.2 |
| 20260506131958 | 37 | 142 | 1.7 | 2.6 | 0.00 | 0.00 | 0.00 | 74 | 1005.2 |
| 20260506131856 | 37 | 142 | 1.7 | 2.6 | 0.00 | 0.00 | 0.00 | 74 | 1005.2 |
| 20260506131756 | 37 | 142 | 1.7 | 2.6 | 0.00 | 0.00 | 0.00 | 74 | 1005.2 |
| 20260506131657 | 37 | 142 | 2.6 | 2.6 | 0.00 | 0.00 | 0.00 | 74 | 1005.2 |
| 20260506131557 | 37 | 142 | 2.6 | 2.6 | 0.00 | 0.00 | 0.00 | 74 | 1005.2 |
| 20260506131459 | 37 | 142 | 1.7 | 2.6 | 0.00 | 0.00 | 0.00 | 74 | 1005.1 |
| 20260506131357 | 37 | 142 | 1.7 | 2.6 | 0.00 | 0.00 | 0.00 | 74 | 1005.1 |
| 20260506131257 | 37 | 142 | 0.9 | 2.6 | 0.00 | 0.00 | 0.00 | 74 | 1005.1 |
| 20260506131057 | 37 | 142 | 1.7 | 4.3 | 0.00 | 0.00 | 0.00 | 74 | 1005.1 |
| 20260506130757 | 37 | 142 | 1.7 | 4.3 | 0.00 | 0.00 | 0.00 | 74 | 1005.1 |
| 20260506130657 | 37 | 142 | 0.9 | 4.3 | 0.00 | 0.00 | 0.00 | 74 | 1005.1 |
| 20260506130556 | 37 | 142 | 1.7 | 4.3 | 0.00 | 0.00 | 0.00 | 74 | 1005.1 |
| 20260506130458 | 37 | 142 | 1.7 | 4.3 | 0.00 | 0.00 | 0.00 | 74 | 1005.1 |
| 20260506130358 | 37 | 142 | 2.6 | 4.3 | 0.00 | 0.00 | 0.00 | 74 | 1005.1 |
| 20260506130257 | 37 | 142 | 3.5 | 5.2 | 0.00 | 0.00 | 0.00 | 74 | 1005.1 |
| 20260506130056 | 38 | 153 | 2.6 | 5.2 | 0.00 | 0.00 | 0.00 | 73 | 1005.1 |
| 20260506125958 | 38 | 153 | 3.5 | 5.2 | 0.00 | 0.00 | 0.00 | 73 | 1005.1 |
| 20260506125856 | 38 | 139 | 1.7 | 3.5 | 0.00 | 0.00 | 0.00 | 73 | 1005.1 |
| 20260506125755 | 38 | 111 | 0.9 | 2.6 | 0.00 | 0.00 | 0.00 | 73 | 1005.0 |
| 20260506125656 | 38 | 111 | 1.7 | 2.6 | 0.00 | 0.00 | 0.00 | 73 | 1005.0 |
| 20260506125556 | 38 | 111 | 0.9 | 2.6 | 0.00 | 0.00 | 0.00 | 73 | 1005.0 |
| 20260506125457 | 38 | 111 | 0.9 | 2.6 | 0.00 | 0.00 | 0.00 | 73 | 1005.0 |
| 20260506125356 | 38 | 111 | 0.0 | 2.6 | 0.00 | 0.00 | 0.00 | 73 | 1005.0 |
| 20260506125256 | 38 | 111 | 0.0 | 3.5 | 0.00 | 0.00 | 0.00 | 73 | 1005.0 |
| 20260506125155 | 38 | 111 | 0.9 | 3.5 | 0.00 | 0.00 | 0.00 | 73 | 1005.0 |
| 20260506125055 | 38 | 111 | 0.9 | 3.5 | 0.00 | 0.00 | 0.00 | 73 | 1005.0 |
| 20260506124958 | 38 | 111 | 1.7 | 3.5 | 0.00 | 0.00 | 0.00 | 73 | 1005.0 |
| 20260506124856 | 38 | 111 | 1.7 | 3.5 | 0.00 | 0.00 | 0.00 | 73 | 1005.0 |
| 20260506124755 | 38 | 111 | 1.7 | 3.5 | 0.00 | 0.00 | 0.00 | 73 | 1005.0 |
| 20260506124655 | 38 | 111 | 0.9 | 3.5 | 0.00 | 0.00 | 0.00 | 73 | 1005.0 |
| 20260506124457 | 38 | 111 | 2.6 | 3.5 | 0.00 | 0.00 | 0.00 | 73 | 1005.0 |
| 20260506124355 | 38 | 109 | 2.6 | 3.5 | 0.00 | 0.00 | 0.00 | 73 | 1005.0 |
| 20260506124256 | 38 | 108 | 1.7 | 3.5 | 0.00 | 0.00 | 0.00 | 73 | 1005.0 |
| 20260506124155 | 38 | 109 | 1.7 | 3.5 | 0.00 | 0.00 | 0.00 | 73 | 1005.0 |
| 20260506124058 | 38 | 108 | 1.7 | 3.5 | 0.00 | 0.00 | 0.00 | 73 | 1005.0 |
| 20260506123957 | 38 | 108 | 1.7 | 3.5 | 0.00 | 0.00 | 0.00 | 73 | 1005.0 |
| 20260506123856 | 38 | 108 | 2.6 | 3.5 | 0.00 | 0.00 | 0.00 | 73 | 1005.0 |
| 20260506123757 | 38 | 102 | 3.5 | 3.5 | 0.00 | 0.00 | 0.00 | 73 | 1005.0 |
| 20260506123655 | 38 | 98 | 1.7 | 3.5 | 0.00 | 0.00 | 0.00 | 73 | 1005.0 |
| 20260506123556 | 38 | 98 | 1.7 | 3.5 | 0.00 | 0.00 | 0.00 | 73 | 1005.0 |
| 20260506123456 | 38 | 98 | 1.7 | 3.5 | 0.00 | 0.00 | 0.00 | 73 | 1005.0 |
| 20260506123355 | 38 | 94 | 1.7 | 3.5 | 0.00 | 0.00 | 0.00 | 73 | 1005.0 |
| 20260506123256 | 38 | 351 | 1.7 | 3.5 | 0.00 | 0.00 | 0.00 | 73 | 1005.0 |
| 20260506123155 | 38 | 344 | 1.7 | 3.5 | 0.00 | 0.00 | 0.00 | 72 | 1004.9 |
| 20260506123056 | 38 | 344 | 0.9 | 3.5 | 0.00 | 0.00 | 0.00 | 72 | 1004.9 |
| 20260506122856 | 38 | 355 | 2.6 | 3.5 | 0.00 | 0.00 | 0.00 | 72 | 1004.9 |
| 20260506122756 | 38 | 355 | 1.7 | 3.5 | 0.00 | 0.00 | 0.00 | 72 | 1004.9 |
| 20260506122655 | 38 | 355 | 0.9 | 3.5 | 0.00 | 0.00 | 0.00 | 72 | 1004.9 |
| 20260506122556 | 38 | 355 | 2.6 | 3.5 | 0.00 | 0.00 | 0.00 | 72 | 1004.9 |
| 20260506122457 | 38 | 355 | 2.6 | 3.5 | 0.00 | 0.00 | 0.00 | 72 | 1004.9 |
| 20260506122357 | 38 | 355 | 3.5 | 3.5 | 0.00 | 0.00 | 0.00 | 72 | 1004.9 |
| 20260506122255 | 38 | 17 | 1.7 | 3.5 | 0.00 | 0.00 | 0.00 | 72 | 1004.8 |
| 20260506122155 | 38 | 17 | 0.9 | 3.5 | 0.00 | 0.00 | 0.00 | 72 | 1004.8 |
| 20260506121959 | 38 | 17 | 2.6 | 3.5 | 0.00 | 0.00 | 0.00 | 72 | 1004.8 |
| 20260506121856 | 38 | 107 | 1.7 | 2.6 | 0.00 | 0.00 | 0.00 | 73 | 1004.8 |
| 20260506121756 | 38 | 107 | 0.9 | 2.6 | 0.00 | 0.00 | 0.00 | 73 | 1004.7 |
| 20260506121656 | 38 | 107 | 2.6 | 2.6 | 0.00 | 0.00 | 0.00 | 73 | 1004.7 |
| 20260506121556 | 38 | 113 | 2.6 | 2.6 | 0.00 | 0.00 | 0.00 | 73 | 1004.8 |
| 20260506121458 | 38 | 114 | 0.0 | 1.7 | 0.00 | 0.00 | 0.00 | 73 | 1004.8 |
| 20260506121356 | 38 | 114 | 0.9 | 1.7 | 0.00 | 0.00 | 0.00 | 74 | 1004.8 |
| 20260506121255 | 38 | 114 | 0.9 | 1.7 | 0.00 | 0.00 | 0.00 | 73 | 1004.8 |
| 20260506121156 | 38 | 114 | 0.0 | 1.7 | 0.00 | 0.00 | 0.00 | 72 | 1004.7 |
| 20260506121056 | 38 | 114 | 0.9 | 1.7 | 0.00 | 0.00 | 0.00 | 72 | 1004.7 |
| 20260506120958 | 38 | 114 | 0.9 | 1.7 | 0.00 | 0.00 | 0.00 | 72 | 1004.8 |
| 20260506120556 | 38 | 114 | 0.0 | 3.5 | 0.00 | 0.00 | 0.00 | 72 | 1004.7 |
| 20260506120456 | 38 | 114 | 0.9 | 3.5 | 0.00 | 0.00 | 0.00 | 72 | 1004.7 |
| 20260506120358 | 38 | 114 | 0.9 | 3.5 | 0.00 | 0.00 | 0.00 | 72 | 1004.7 |
| 20260506120256 | 38 | 114 | 0.9 | 7.0 | 0.00 | 0.00 | 0.00 | 72 | 1004.7 |
| 20260506120158 | 38 | 114 | 0.9 | 7.0 | 0.00 | 0.00 | 0.00 | 71 | 1004.7 |
| 20260506120057 | 38 | 114 | 1.7 | 7.0 | 0.00 | 0.00 | 0.00 | 71 | 1004.7 |
| 20260506115957 | 38 | 114 | 1.7 | 7.0 | 0.00 | 0.00 | 0.00 | 71 | 1004.7 |
| 20260506115855 | 39 | 114 | 1.7 | 7.0 | 0.00 | 0.00 | 0.00 | 71 | 1004.7 |
| 20260506115655 | 38 | 109 | 3.5 | 7.0 | 0.00 | 0.00 | 0.00 | 70 | 1004.7 |
| 20260506115556 | 38 | 52 | 2.6 | 7.0 | 0.00 | 0.00 | 0.00 | 71 | 1004.6 |
| 20260506115458 | 38 | 355 | 5.2 | 7.0 | 0.00 | 0.00 | 0.00 | 72 | 1004.7 |
| 20260506115255 | 38 | 286 | 0.9 | 4.3 | 0.00 | 0.00 | 0.00 | 72 | 1004.7 |
| 20260506115156 | 38 | 286 | 0.9 | 4.3 | 0.00 | 0.00 | 0.00 | 72 | 1004.7 |
| 20260506115056 | 38 | 286 | 1.7 | 4.3 | 0.00 | 0.00 | 0.00 | 72 | 1004.6 |
| 20260506114957 | 38 | 284 | 1.7 | 4.3 | 0.00 | 0.00 | 0.00 | 72 | 1004.7 |
| 20260506114856 | 38 | 284 | 0.0 | 4.3 | 0.00 | 0.00 | 0.00 | 72 | 1004.6 |
| 20260506114756 | 38 | 284 | 2.6 | 4.3 | 0.00 | 0.00 | 0.00 | 72 | 1004.7 |
| 20260506114657 | 38 | 286 | 3.5 | 3.5 | 0.00 | 0.00 | 0.00 | 72 | 1004.6 |
| 20260506114556 | 38 | 51 | 0.9 | 1.7 | 0.00 | 0.00 | 0.00 | 72 | 1004.6 |
| 20260506114457 | 38 | 51 | 0.9 | 1.7 | 0.00 | 0.00 | 0.00 | 72 | 1004.7 |
| 20260506114356 | 38 | 51 | 0.0 | 2.6 | 0.00 | 0.00 | 0.00 | 72 | 1004.6 |
| 20260506114256 | 38 | 51 | 0.0 | 2.6 | 0.00 | 0.00 | 0.00 | 72 | 1004.6 |
| 20260506114155 | 38 | 51 | 1.7 | 2.6 | 0.00 | 0.00 | 0.00 | 72 | 1004.6 |
| 20260506114056 | 38 | 51 | 0.0 | 2.6 | 0.00 | 0.00 | 0.00 | 72 | 1004.6 |
| 20260506113958 | 38 | 51 | 0.0 | 2.6 | 0.00 | 0.00 | 0.00 | 72 | 1004.6 |
| 20260506113655 | 38 | 51 | 1.7 | 2.6 | 0.00 | 0.00 | 0.00 | 72 | 1004.6 |
| 20260506113555 | 38 | 52 | 1.7 | 2.6 | 0.00 | 0.00 | 0.00 | 72 | 1004.6 |
| 20260506113457 | 38 | 51 | 1.7 | 2.6 | 0.00 | 0.00 | 0.00 | 72 | 1004.6 |
| 20260506113355 | 38 | 51 | 0.9 | 2.6 | 0.00 | 0.00 | 0.00 | 72 | 1004.7 |
| 20260506113156 | 38 | 35 | 2.6 | 2.6 | 0.00 | 0.00 | 0.00 | 72 | 1004.7 |
| 20260506113056 | 38 | 319 | 1.7 | 2.6 | 0.00 | 0.00 | 0.00 | 72 | 1004.7 |
| 20260506112855 | 38 | 318 | 1.7 | 2.6 | 0.00 | 0.00 | 0.00 | 72 | 1004.6 |
| 20260506112756 | 38 | 317 | 1.7 | 1.7 | 0.00 | 0.00 | 0.00 | 72 | 1004.6 |
| 20260506112656 | 38 | 317 | 1.7 | 2.6 | 0.00 | 0.00 | 0.00 | 72 | 1004.6 |
| 20260506112555 | 38 | 318 | 0.9 | 2.6 | 0.00 | 0.00 | 0.00 | 72 | 1004.6 |
| 20260506112356 | 38 | 318 | 0.0 | 2.6 | 0.00 | 0.00 | 0.00 | 71 | 1004.7 |
| 20260506112256 | 38 | 318 | 0.0 | 2.6 | 0.00 | 0.00 | 0.00 | 71 | 1004.6 |
| 20260506112156 | 38 | 318 | 0.0 | 2.6 | 0.00 | 0.00 | 0.00 | 71 | 1004.6 |
| 20260506111958 | 38 | 318 | 0.9 | 2.6 | 0.00 | 0.00 | 0.00 | 71 | 1004.7 |
| 20260506111855 | 38 | 318 | 2.6 | 2.6 | 0.00 | 0.00 | 0.00 | 71 | 1004.7 |
| 20260506111756 | 38 | 317 | 1.7 | 2.6 | 0.00 | 0.00 | 0.00 | 71 | 1004.7 |
| 20260506111656 | 38 | 317 | 1.7 | 1.7 | 0.00 | 0.00 | 0.00 | 72 | 1004.7 |
| 20260506111457 | 38 | 317 | 0.9 | 1.7 | 0.00 | 0.00 | 0.00 | 71 | 1004.7 |
| 20260506111355 | 38 | 317 | 0.9 | 1.7 | 0.00 | 0.00 | 0.00 | 71 | 1004.7 |
| 20260506111255 | 38 | 317 | 1.7 | 1.7 | 0.00 | 0.00 | 0.00 | 71 | 1004.7 |
| 20260506111156 | 38 | 317 | 0.9 | 1.7 | 0.00 | 0.00 | 0.00 | 71 | 1004.7 |
| 20260506111056 | 38 | 317 | 0.0 | 1.7 | 0.00 | 0.00 | 0.00 | 71 | 1004.7 |
| 20260506110958 | 38 | 317 | 0.9 | 1.7 | 0.00 | 0.00 | 0.00 | 70 | 1004.7 |
| 20260506110855 | 39 | 317 | 0.9 | 1.7 | 0.00 | 0.00 | 0.00 | 70 | 1004.7 |
| 20260506110655 | 39 | 317 | 0.9 | 2.6 | 0.00 | 0.00 | 0.00 | 70 | 1004.7 |
| 20260506110556 | 39 | 317 | 0.9 | 2.6 | 0.00 | 0.00 | 0.00 | 70 | 1004.7 |
| 20260506110457 | 39 | 317 | 0.9 | 2.6 | 0.00 | 0.00 | 0.00 | 70 | 1004.7 |
| 20260506110256 | 39 | 317 | 0.0 | 2.6 | 0.00 | 0.00 | 0.00 | 70 | 1004.7 |
| 20260506110156 | 39 | 317 | 0.9 | 2.6 | 0.00 | 0.00 | 0.00 | 70 | 1004.6 |
| 20260506110057 | 39 | 317 | 0.0 | 2.6 | 0.00 | 0.00 | 0.00 | 69 | 1004.6 |
| 20260506105957 | 39 | 317 | 0.9 | 2.6 | 0.00 | 0.00 | 0.00 | 69 | 1004.6 |
| 20260506105856 | 39 | 317 | 0.9 | 3.5 | 0.00 | 0.00 | 0.00 | 69 | 1004.6 |
| 20260506105756 | 39 | 317 | 1.7 | 3.5 | 0.00 | 0.00 | 0.00 | 69 | 1004.6 |
| 20260506105656 | 39 | 317 | 1.7 | 3.5 | 0.00 | 0.00 | 0.00 | 69 | 1004.6 |
| 20260506105555 | 39 | 317 | 1.7 | 3.5 | 0.00 | 0.00 | 0.00 | 69 | 1004.6 |
| 20260506105457 | 39 | 317 | 1.7 | 3.5 | 0.00 | 0.00 | 0.00 | 69 | 1004.5 |
| 20260506105255 | 39 | 317 | 0.9 | 3.5 | 0.00 | 0.00 | 0.00 | 70 | 1004.5 |
| 20260506105056 | 39 | 317 | 2.6 | 3.5 | 0.00 | 0.00 | 0.00 | 69 | 1004.5 |
| 20260506104958 | 39 | 317 | 3.5 | 3.5 | 0.00 | 0.00 | 0.00 | 69 | 1004.5 |
| 20260506104856 | 39 | 280 | 1.7 | 3.5 | 0.00 | 0.00 | 0.00 | 70 | 1004.5 |
| 20260506104755 | 39 | 229 | 0.9 | 3.5 | 0.00 | 0.00 | 0.00 | 70 | 1004.5 |
| 20260506104556 | 39 | 144 | 1.7 | 1.7 | 0.00 | 0.00 | 0.00 | 70 | 1004.5 |
| 20260506104457 | 39 | 144 | 0.9 | 1.7 | 0.00 | 0.00 | 0.00 | 70 | 1004.5 |
| 20260506104356 | 39 | 144 | 1.7 | 1.7 | 0.00 | 0.00 | 0.00 | 70 | 1004.5 |
| 20260506104255 | 39 | 144 | 0.0 | 1.7 | 0.00 | 0.00 | 0.00 | 70 | 1004.4 |
| 20260506104156 | 39 | 144 | 0.9 | 3.5 | 0.00 | 0.00 | 0.00 | 70 | 1004.5 |
| 20260506104056 | 39 | 144 | 0.9 | 3.5 | 0.00 | 0.00 | 0.00 | 71 | 1004.5 |
| 20260506103959 | 39 | 144 | 0.9 | 3.5 | 0.00 | 0.00 | 0.00 | 71 | 1004.5 |
| 20260506103856 | 39 | 144 | 0.9 | 3.5 | 0.00 | 0.00 | 0.00 | 70 | 1004.5 |
| 20260506103657 | 39 | 144 | 0.0 | 3.5 | 0.00 | 0.00 | 0.00 | 70 | 1004.4 |
| 20260506103556 | 39 | 144 | 0.0 | 3.5 | 0.00 | 0.00 | 0.00 | 69 | 1004.4 |
| 20260506103355 | 39 | 144 | 0.9 | 3.5 | 0.00 | 0.00 | 0.00 | 69 | 1004.4 |
| 20260506102958 | 38 | 147 | 0.9 | 2.6 | 0.00 | 0.00 | 0.00 | 71 | 1004.4 |
| 20260506102855 | 38 | 147 | 0.9 | 2.6 | 0.00 | 0.00 | 0.00 | 71 | 1004.3 |
| 20260506102656 | 38 | 147 | 0.9 | 2.6 | 0.00 | 0.00 | 0.00 | 71 | 1004.5 |
| 20260506102555 | 38 | 147 | 1.7 | 2.6 | 0.00 | 0.00 | 0.00 | 71 | 1004.4 |
| 20260506102457 | 38 | 147 | 0.9 | 2.6 | 0.00 | 0.00 | 0.00 | 71 | 1004.4 |
| 20260506102356 | 38 | 147 | 0.9 | 2.6 | 0.00 | 0.00 | 0.00 | 70 | 1004.5 |
| 20260506102257 | 39 | 147 | 0.0 | 2.6 | 0.00 | 0.00 | 0.00 | 71 | 1004.4 |
| 20260506102156 | 38 | 147 | 1.7 | 2.6 | 0.00 | 0.00 | 0.00 | 70 | 1004.4 |
| 20260506102054 | 38 | 147 | 2.6 | 2.6 | 0.00 | 0.00 | 0.00 | 70 | 1004.5 |
| 20260506101957 | 39 | 147 | 1.7 | 2.6 | 0.00 | 0.00 | 0.00 | 70 | 1004.4 |
| 20260506101855 | 39 | 147 | 0.0 | 3.5 | 0.00 | 0.00 | 0.00 | 70 | 1004.5 |
| 20260506101756 | 39 | 147 | 0.9 | 3.5 | 0.00 | 0.00 | 0.00 | 70 | 1004.5 |
| 20260506101655 | 39 | 147 | 2.6 | 3.5 | 0.00 | 0.00 | 0.00 | 70 | 1004.4 |
| 20260506101555 | 39 | 147 | 0.9 | 3.5 | 0.00 | 0.00 | 0.00 | 70 | 1004.4 |
| 20260506101356 | 39 | 147 | 0.0 | 3.5 | 0.00 | 0.00 | 0.00 | 70 | 1004.4 |
| 20260506101255 | 39 | 147 | 0.9 | 3.5 | 0.00 | 0.00 | 0.00 | 70 | 1004.3 |
| 20260506101156 | 39 | 147 | 0.9 | 3.5 | 0.00 | 0.00 | 0.00 | 70 | 1004.3 |
| 20260506100957 | 39 | 147 | 2.6 | 4.3 | 0.00 | 0.00 | 0.00 | 69 | 1004.3 |
| 20260506100857 | 39 | 147 | 1.7 | 4.3 | 0.00 | 0.00 | 0.00 | 69 | 1004.3 |
| 20260506100757 | 39 | 147 | 0.9 | 4.3 | 0.00 | 0.00 | 0.00 | 69 | 1004.3 |
| 20260506100656 | 39 | 147 | 0.9 | 4.3 | 0.00 | 0.00 | 0.00 | 69 | 1004.3 |
| 20260506100556 | 39 | 147 | 2.6 | 4.3 | 0.00 | 0.00 | 0.00 | 68 | 1004.3 |
| 20260506100457 | 39 | 146 | 1.7 | 4.3 | 0.00 | 0.00 | 0.00 | 68 | 1004.2 |
| 20260506100356 | 39 | 146 | 1.7 | 4.3 | 0.00 | 0.00 | 0.00 | 68 | 1004.2 |
| 20260506100255 | 39 | 146 | 2.6 | 4.3 | 0.00 | 0.00 | 0.00 | 68 | 1004.2 |
| 20260506100156 | 40 | 279 | 1.7 | 4.3 | 0.00 | 0.00 | 0.00 | 67 | 1004.2 |
| 20260506100056 | 40 | 286 | 3.5 | 3.5 | 0.00 | 0.00 | 0.00 | 67 | 1004.1 |
| 20260506095959 | 40 | 318 | 1.7 | 3.5 | 0.00 | 0.00 | 0.00 | 68 | 1004.2 |
| 20260506095856 | 40 | 319 | 0.9 | 4.3 | 0.00 | 0.00 | 0.00 | 67 | 1004.2 |
| 20260506095756 | 40 | 318 | 1.7 | 7.0 | 0.00 | 0.00 | 0.00 | 67 | 1004.2 |
| 20260506095656 | 40 | 318 | 1.7 | 7.0 | 0.00 | 0.00 | 0.00 | 67 | 1004.2 |
| 20260506095458 | 40 | 319 | 0.9 | 7.0 | 0.00 | 0.00 | 0.00 | 67 | 1004.2 |
| 20260506095356 | 40 | 317 | 0.9 | 7.0 | 0.00 | 0.00 | 0.00 | 66 | 1004.2 |
| 20260506095255 | 40 | 319 | 1.7 | 7.0 | 0.00 | 0.00 | 0.00 | 66 | 1004.1 |
| 20260506095156 | 40 | 321 | 1.7 | 7.0 | 0.00 | 0.00 | 0.00 | 66 | 1004.1 |
| 20260506094957 | 40 | 291 | 2.6 | 7.0 | 0.00 | 0.00 | 0.00 | 66 | 1004.0 |
| 20260506094856 | 40 | 296 | 6.1 | 7.0 | 0.00 | 0.00 | 0.00 | 66 | 1004.1 |
| 20260506094755 | 40 | 316 | 3.5 | 7.8 | 0.00 | 0.00 | 0.00 | 66 | 1004.1 |
| 20260506094556 | 40 | 296 | 7.0 | 7.8 | 0.00 | 0.00 | 0.00 | 66 | 1004.1 |
| 20260506094356 | 40 | 343 | 0.0 | 7.8 | 0.00 | 0.00 | 0.00 | 65 | 1004.1 |
| 20260506094256 | 40 | 342 | 0.9 | 7.8 | 0.00 | 0.00 | 0.00 | 65 | 1004.1 |
| 20260506094155 | 40 | 343 | 1.7 | 7.8 | 0.00 | 0.00 | 0.00 | 65 | 1004.1 |
| 20260506094056 | 40 | 355 | 0.9 | 7.8 | 0.00 | 0.00 | 0.00 | 65 | 1004.0 |
| 20260506093655 | 41 | 327 | 3.5 | 7.8 | 0.00 | 0.00 | 0.00 | 64 | 1004.1 |
| 20260506093555 | 41 | 309 | 6.1 | 7.8 | 0.00 | 0.00 | 0.00 | 63 | 1004.1 |
| 20260506093457 | 41 | 123 | 1.7 | 7.0 | 0.00 | 0.00 | 0.00 | 63 | 1004.1 |
| 20260506093357 | 41 | 114 | 6.1 | 7.0 | 0.00 | 0.00 | 0.00 | 63 | 1004.0 |
| 20260506093256 | 41 | 313 | 1.7 | 7.0 | 0.00 | 0.00 | 0.00 | 63 | 1004.0 |
| 20260506093156 | 41 | 304 | 1.7 | 8.7 | 0.00 | 0.00 | 0.00 | 62 | 1003.9 |
| 20260506093055 | 41 | 277 | 2.6 | 10.4 | 0.00 | 0.00 | 0.00 | 62 | 1004.0 |
| 20260506092957 | 41 | 288 | 4.3 | 10.4 | 0.00 | 0.00 | 0.00 | 62 | 1004.0 |
| 20260506092755 | 41 | 240 | 4.3 | 10.4 | 0.00 | 0.00 | 0.00 | 62 | 1004.0 |
| 20260506092655 | 41 | 191 | 3.5 | 10.4 | 0.00 | 0.00 | 0.00 | 62 | 1004.0 |
| 20260506092555 | 41 | 28 | 1.7 | 10.4 | 0.00 | 0.00 | 0.00 | 62 | 1004.0 |
| 20260506092457 | 41 | 190 | 2.6 | 10.4 | 0.00 | 0.00 | 0.00 | 62 | 1004.1 |
| 20260506092255 | 41 | 138 | 4.3 | 11.3 | 0.00 | 0.00 | 0.00 | 62 | 1004.0 |
| 20260506092155 | 41 | 226 | 4.3 | 13.0 | 0.00 | 0.00 | 0.00 | 62 | 1004.0 |
| 20260506092055 | 41 | 191 | 2.6 | 13.0 | 0.00 | 0.00 | 0.00 | 62 | 1003.9 |
| 20260506091957 | 41 | 252 | 3.5 | 13.0 | 0.00 | 0.00 | 0.00 | 62 | 1003.9 |
| 20260506091755 | 41 | 160 | 3.5 | 13.0 | 0.00 | 0.00 | 0.00 | 62 | 1003.9 |
| 20260506091657 | 41 | 71 | 1.7 | 13.0 | 0.00 | 0.00 | 0.00 | 62 | 1003.9 |
| 20260506091556 | 41 | 141 | 0.9 | 13.0 | 0.00 | 0.00 | 0.00 | 62 | 1003.9 |
| 20260506091458 | 41 | 118 | 6.1 | 13.0 | 0.00 | 0.00 | 0.00 | 62 | 1003.9 |
| 20260506091355 | 41 | 78 | 8.7 | 13.0 | 0.00 | 0.00 | 0.00 | 62 | 1003.9 |
| 20260506091255 | 41 | 120 | 11.3 | 13.0 | 0.00 | 0.00 | 0.00 | 62 | 1003.9 |
| 20260506091056 | 41 | 86 | 2.6 | 13.0 | 0.00 | 0.00 | 0.00 | 62 | 1003.9 |
| 20260506090958 | 41 | 83 | 3.5 | 13.0 | 0.00 | 0.00 | 0.00 | 62 | 1003.9 |
| 20260506090755 | 41 | 103 | 7.8 | 13.0 | 0.00 | 0.00 | 0.00 | 62 | 1003.9 |
| 20260506090656 | 41 | 120 | 13.0 | 13.0 | 0.00 | 0.00 | 0.00 | 63 | 1003.9 |
| 20260506090555 | 41 | 209 | 3.5 | 11.3 | 0.00 | 0.00 | 0.00 | 62 | 1003.8 |
| 20260506090458 | 41 | 126 | 4.3 | 11.3 | 0.00 | 0.00 | 0.00 | 62 | 1003.9 |
| 20260506090356 | 41 | 112 | 1.7 | 11.3 | 0.00 | 0.00 | 0.00 | 62 | 1003.9 |
| 20260506090256 | 41 | 90 | 7.0 | 11.3 | 0.00 | 0.00 | 0.00 | 62 | 1003.9 |
| 20260506090156 | 41 | 166 | 4.3 | 11.3 | 0.00 | 0.00 | 0.00 | 62 | 1003.9 |
| 20260506090056 | 41 | 143 | 1.7 | 11.3 | 0.00 | 0.00 | 0.00 | 63 | 1003.9 |
| 20260506090000 | 41 | 124 | 4.3 | 11.3 | 0.00 | 0.00 | 0.00 | 63 | 1003.9 |
| 20260506085858 | 41 | 96 | 5.2 | 11.3 | 0.00 | 0.00 | 0.00 | 62 | 1003.9 |
| 20260506085756 | 41 | 105 | 6.1 | 11.3 | 0.00 | 0.00 | 0.00 | 62 | 1003.9 |
| 20260506085656 | 41 | 144 | 2.6 | 7.0 | 0.00 | 0.00 | 0.00 | 63 | 1003.9 |
| 20260506085556 | 41 | 118 | 0.9 | 7.8 | 0.00 | 0.00 | 0.00 | 63 | 1003.9 |
| 20260506085458 | 41 | 111 | 2.6 | 7.8 | 0.00 | 0.00 | 0.00 | 63 | 1003.9 |
| 20260506085356 | 41 | 180 | 1.7 | 7.8 | 0.00 | 0.00 | 0.00 | 63 | 1003.8 |
| 20260506085257 | 41 | 180 | 2.6 | 7.8 | 0.00 | 0.00 | 0.00 | 63 | 1003.9 |
| 20260506085157 | 41 | 208 | 0.9 | 7.8 | 0.00 | 0.00 | 0.00 | 63 | 1003.9 |
| 20260506085057 | 41 | 208 | 0.9 | 7.8 | 0.00 | 0.00 | 0.00 | 63 | 1003.9 |
| 20260506084958 | 41 | 135 | 1.7 | 7.8 | 0.00 | 0.00 | 0.00 | 63 | 1003.9 |
| 20260506084757 | 41 | 190 | 4.3 | 10.4 | 0.00 | 0.00 | 0.00 | 63 | 1003.9 |
| 20260506084657 | 41 | 176 | 2.6 | 10.4 | 0.00 | 0.00 | 0.00 | 63 | 1003.9 |
| 20260506084556 | 41 | 178 | 5.2 | 10.4 | 0.00 | 0.00 | 0.00 | 63 | 1003.9 |
| 20260506084458 | 41 | 142 | 4.3 | 10.4 | 0.00 | 0.00 | 0.00 | 63 | 1003.9 |
| 20260506084358 | 41 | 155 | 1.7 | 10.4 | 0.00 | 0.00 | 0.00 | 63 | 1003.9 |
| 20260506084257 | 41 | 136 | 4.3 | 10.4 | 0.00 | 0.00 | 0.00 | 63 | 1003.8 |
| 20260506084156 | 41 | 142 | 7.0 | 10.4 | 0.00 | 0.00 | 0.00 | 62 | 1003.8 |
| 20260506084057 | 41 | 151 | 3.5 | 9.6 | 0.00 | 0.00 | 0.00 | 62 | 1003.8 |
| 20260506083958 | 41 | 164 | 1.7 | 9.6 | 0.00 | 0.00 | 0.00 | 62 | 1003.8 |
| 20260506083757 | 41 | 159 | 6.1 | 9.6 | 0.00 | 0.00 | 0.00 | 62 | 1003.7 |
| 20260506083657 | 41 | 159 | 6.1 | 9.6 | 0.00 | 0.00 | 0.00 | 63 | 1003.7 |
| 20260506083556 | 41 | 173 | 1.7 | 9.6 | 0.00 | 0.00 | 0.00 | 62 | 1003.7 |
| 20260506083356 | 41 | 172 | 0.9 | 12.2 | 0.00 | 0.00 | 0.00 | 62 | 1003.8 |
| 20260506083056 | 41 | 155 | 2.6 | 12.2 | 0.00 | 0.00 | 0.00 | 63 | 1003.7 |
| 20260506082957 | 41 | 131 | 6.1 | 12.2 | 0.00 | 0.00 | 0.00 | 63 | 1003.7 |
| 20260506082856 | 41 | 154 | 6.1 | 12.2 | 0.00 | 0.00 | 0.00 | 63 | 1003.7 |
| 20260506082756 | 41 | 177 | 5.2 | 12.2 | 0.00 | 0.00 | 0.00 | 62 | 1003.8 |
| 20260506082656 | 41 | 189 | 5.2 | 12.2 | 0.00 | 0.00 | 0.00 | 62 | 1003.8 |
| 20260506082556 | 41 | 150 | 3.5 | 12.2 | 0.00 | 0.00 | 0.00 | 62 | 1003.7 |
| 20260506082459 | 41 | 181 | 1.7 | 12.2 | 0.00 | 0.00 | 0.00 | 61 | 1003.6 |
| 20260506082256 | 42 | 160 | 3.5 | 12.2 | 0.00 | 0.00 | 0.00 | 61 | 1003.6 |
| 20260506082156 | 41 | 169 | 6.1 | 12.2 | 0.00 | 0.00 | 0.00 | 61 | 1003.6 |
| 20260506081957 | 42 | 163 | 1.7 | 12.2 | 0.00 | 0.00 | 0.00 | 60 | 1003.6 |
| 20260506081857 | 42 | 114 | 5.2 | 16.5 | 0.00 | 0.00 | 0.00 | 60 | 1003.6 |
| 20260506081656 | 41 | 162 | 6.1 | 16.5 | 0.00 | 0.00 | 0.00 | 60 | 1003.6 |
| 20260506081556 | 41 | 132 | 2.6 | 16.5 | 0.00 | 0.00 | 0.00 | 60 | 1003.5 |
| 20260506081458 | 41 | 130 | 6.1 | 16.5 | 0.00 | 0.00 | 0.00 | 60 | 1003.6 |
| 20260506081356 | 41 | 106 | 6.1 | 16.5 | 0.00 | 0.00 | 0.00 | 61 | 1003.5 |
| 20260506081256 | 41 | 161 | 0.9 | 16.5 | 0.00 | 0.00 | 0.00 | 61 | 1003.4 |
| 20260506081157 | 41 | 175 | 7.0 | 17.4 | 0.00 | 0.00 | 0.00 | 61 | 1003.5 |
| 20260506081056 | 41 | 140 | 10.4 | 17.4 | 0.00 | 0.00 | 0.00 | 61 | 1003.5 |
| 20260506080959 | 41 | 150 | 12.2 | 17.4 | 0.00 | 0.00 | 0.00 | 61 | 1003.5 |
| 20260506080857 | 42 | 128 | 8.7 | 17.4 | 0.00 | 0.00 | 0.00 | 61 | 1003.5 |
| 20260506080758 | 42 | 171 | 7.8 | 17.4 | 0.00 | 0.00 | 0.00 | 61 | 1003.6 |
| 20260506080656 | 42 | 147 | 7.0 | 17.4 | 0.00 | 0.00 | 0.00 | 60 | 1003.5 |
| 20260506080557 | 42 | 153 | 8.7 | 17.4 | 0.00 | 0.00 | 0.00 | 60 | 1003.5 |
| 20260506080457 | 42 | 146 | 4.3 | 17.4 | 0.00 | 0.00 | 0.00 | 59 | 1003.5 |
| 20260506080358 | 42 | 123 | 11.3 | 17.4 | 0.00 | 0.00 | 0.00 | 59 | 1003.5 |
| 20260506080257 | 42 | 150 | 4.3 | 15.6 | 0.00 | 0.00 | 0.00 | 59 | 1003.5 |
| 20260506080158 | 42 | 155 | 3.5 | 15.6 | 0.00 | 0.00 | 0.00 | 59 | 1003.5 |
| 20260506073500 | 41 | 192 | 5.2 | 11.3 | 0.00 | 0.00 | 0.00 | 60 | 1003.3 |
| 20260506073357 | 41 | 142 | 3.5 | 11.3 | 0.00 | 0.00 | 0.00 | 60 | 1003.3 |
| 20260506073258 | 41 | 121 | 2.6 | 12.2 | 0.00 | 0.00 | 0.00 | 60 | 1003.3 |
| 20260506073158 | 41 | 122 | 7.8 | 12.2 | 0.00 | 0.00 | 0.00 | 60 | 1003.3 |
| 20260506073058 | 41 | 81 | 7.8 | 14.8 | 0.00 | 0.00 | 0.00 | 60 | 1003.2 |
| 20260506073001 | 42 | 166 | 10.4 | 14.8 | 0.00 | 0.00 | 0.00 | 60 | 1003.3 |
| 20260506072859 | 42 | 153 | 3.5 | 15.6 | 0.00 | 0.00 | 0.00 | 60 | 1003.3 |
| 20260506072758 | 42 | 169 | 0.9 | 17.4 | 0.00 | 0.00 | 0.00 | 60 | 1003.3 |
| 20260506072658 | 42 | 121 | 8.7 | 17.4 | 0.00 | 0.00 | 0.00 | 59 | 1003.3 |
| 20260506072558 | 41 | 108 | 8.7 | 17.4 | 0.00 | 0.00 | 0.00 | 60 | 1003.2 |
| 20260506072358 | 41 | 92 | 9.6 | 17.4 | 0.00 | 0.00 | 0.00 | 60 | 1003.2 |
| 20260506072258 | 41 | 134 | 8.7 | 17.4 | 0.00 | 0.00 | 0.00 | 60 | 1003.3 |
| 20260506071858 | 41 | 124 | 12.2 | 17.4 | 0.00 | 0.00 | 0.00 | 61 | 1003.2 |
| 20260506071659 | 41 | 126 | 7.8 | 17.4 | 0.00 | 0.00 | 0.00 | 60 | 1003.3 |
| 20260506071503 | 41 | 115 | 10.4 | 17.4 | 0.00 | 0.00 | 0.00 | 61 | 1003.2 |
| 20260506071359 | 41 | 104 | 8.7 | 18.2 | 0.00 | 0.00 | 0.00 | 60 | 1003.2 |
| 20260506071258 | 41 | 99 | 14.8 | 18.2 | 0.00 | 0.00 | 0.00 | 61 | 1003.1 |
| 20260506071159 | 41 | 109 | 7.0 | 18.2 | 0.00 | 0.00 | 0.00 | 61 | 1003.2 |
| 20260506071058 | 41 | 128 | 7.8 | 18.2 | 0.00 | 0.00 | 0.00 | 60 | 1003.2 |
| 20260506071001 | 42 | 148 | 10.4 | 18.2 | 0.00 | 0.00 | 0.00 | 60 | 1003.2 |
| 20260506070858 | 41 | 117 | 8.7 | 18.2 | 0.00 | 0.00 | 0.00 | 60 | 1003.2 |
| 20260506070558 | 42 | 122 | 13.9 | 20.0 | 0.00 | 0.00 | 0.00 | 60 | 1003.2 |
| 20260506070500 | 42 | 106 | 15.6 | 20.0 | 0.00 | 0.00 | 0.00 | 60 | 1003.1 |
| 20260506070358 | 42 | 105 | 15.6 | 20.0 | 0.00 | 0.00 | 0.00 | 61 | 1003.2 |
| 20260506070300 | 42 | 109 | 9.6 | 20.0 | 0.00 | 0.00 | 0.00 | 60 | 1003.2 |
| 20260506070158 | 42 | 125 | 12.2 | 20.0 | 0.00 | 0.00 | 0.00 | 60 | 1003.2 |